GFSNE_700_temp_000.txt.gz
Temp
-10 -10 -10 -10 -10 -10 -10 -10 -10 -10 -10 -10 -10 -10 -9 -8 -8 -7 -7 -7 -6 -7 -7 -7 -6 -6 -6 -6 -5 -4 -3 -3 -3 -3 -3 -1 -0 -0
-11 -11 -11 -12 -11 -11 -11 -10 -11 -12 -11 -11 -11 -11 -10 -9 -8 -8 -8 -8 -7 -7 -8 -8 -8 -8 -8 -7 -6 -6 -5 -4 -4 -3 -3 -3 -2 -1
-12 -12 -12 -12 -12 -12 -13 -13 -13 -13 -13 -11 -12 -12 -11 -10 -9 -9 -9 -9 -9 -8 -8 -9 -9 -9 -9 -9 -8 -7 -6 -5 -4 -4 -3 -3 -2 -2
-13 -13 -13 -13 -13 -14 -14 -14 -14 -13 -13 -13 -14 -14 -13 -13 -12 -11 -10 -10 -10 -11 -10 -9 -9 -10 -10 -9 -9 -9 -8 -6 -5 -5 -4 -4 -3 -3
-14 -14 -14 -14 -14 -14 -14 -14 -14 -14 -14 -14 -13 -13 -13 -13 -13 -12 -12 -12 -11 -11 -12 -11 -11 -11 -11 -10 -10 -10 -10 -9 -7 -6 -5 -5 -4 -3
-15 -15 -15 -14 -14 -14 -14 -14 -14 -14 -14 -14 -14 -14 -14 -14 -13 -13 -13 -13 -12 -12 -12 -12 -12 -12 -11 -11 -10 -10 -10 -10 -9 -8 -7 -6 -5 -4
-15 -15 -15 -15 -15 -15 -15 -14 -14 -14 -14 -15 -16 -15 -14 -15 -15 -15 -15 -15 -14 -15 -14 -13 -13 -13 -12 -12 -12 -11 -11 -10 -9 -9 -8 -8 -7 -6
-16 -16 -15 -15 -15 -15 -15 -15 -15 -15 -15 -15 -14 -14 -14 -14 -14 -14 -14 -14 -13 -14 -14 -12 -13 -12 -13 -13 -13 -12 -11 -11 -10 -9 -9 -9 -8 -8
-16 -16 -16 -16 -16 -16 -16 -15 -15 -15 -15 -15 -15 -14 -14 -14 -15 -15 -15 -15 -14 -15 -15 -14 -14 -12 -12 -12 -12 -12 -12 -11 -11 -10 -9 -9 -9 -8
-17 -17 -17 -16 -16 -16 -16 -16 -15 -15 -15 -15 -15 -15 -15 -15 -15 -15 -15 -15 -15 -15 -15 -15 -15 -13 -13 -13 -12 -12 -12 -12 -12 -11 -11 -10 -10 -9
-17 -17 -17 -17 -17 -17 -16 -16 -16 -16 -16 -16 -16 -16 -16 -16 -16 -16 -15 -16 -16 -16 -16 -16 -15 -15 -14 -14 -13 -13 -12 -12 -12 -12 -12 -11 -11 -10
-17 -17 -17 -17 -17 -17 -17 -17 -16 -16 -16 -16 -16 -16 -16 -16 -16 -16 -16 -16 -16 -16 -16 -16 -17 -16 -15 -14 -14 -14 -13 -12 -12 -12 -12 -12 -12 -11
-18 -18 -18 -18 -17 -17 -17 -17 -16 -16 -16 -16 -16 -16 -17 -17 -16 -16 -16 -16 -16 -16 -16 -18 -18 -18 -17 -16 -16 -14 -14 -13 -12 -12 -12 -12 -12 -12
-18 -18 -18 -18 -17 -17 -17 -16 -16 -16 -17 -17 -16 -16 -16 -16 -16 -17 -17 -16 -16 -16 -17 -18 -18 -18 -18 -18 -17 -16 -15 -14 -13 -13 -12 -12 -13 -12
-19 -18 -18 -18 -17 -17 -17 -17 -17 -17 -17 -17 -17 -17 -17 -17 -17 -17 -17 -17 -17 -17 -17 -17 -17 -18 -18 -18 -17 -17 -16 -16 -14 -13 -13 -13 -13 -13
-18 -18 -18 -17 -17 -17 -17 -16 -17 -17 -17 -17 -17 -17 -17 -17 -16 -16 -16 -16 -17 -17 -17 -17 -17 -17 -17 -18 -18 -17 -17 -17 -16 -15 -14 -14 -14 -14
-18 -18 -17 -17 -17 -17 -16 -16 -17 -17 -17 -17 -17 -16 -16 -16 -16 -16 -16 -17 -17 -17 -17 -17 -17 -17 -17 -18 -18 -17 -17 -17 -17 -16 -15 -14 -14 -14
-18 -17 -17 -17 -17 -17 -17 -16 -16 -17 -17 -16 -16 -16 -16 -16 -16 -16 -17 -16 -17 -17 -17 -18 -18 -17 -17 -17 -17 -17 -17 -17 -17 -17 -16 -15 -15 -15
-17 -17 -17 -17 -17 -17 -16 -16 -16 -16 -16 -17 -17 -16 -16 -16 -16 -17 -17 -17 -17 -17 -16 -16 -17 -17 -17 -17 -17 -17 -16 -16 -16 -17 -16 -15 -15 -15
-17 -17 -17 -17 -17 -16 -16 -16 -15 -16 -16 -16 -16 -16 -16 -16 -16 -16 -16 -16 -16 -16 -16 -16 -16 -16 -16 -16 -16 -16 -16 -16 -16 -16 -16 -16 -15 -15
-17 -17 -17 -17 -17 -16 -16 -15 -15 -15 -15 -15 -15 -15 -16 -16 -16 -16 -16 -16 -16 -16 -16 -16 -16 -16 -16 -16 -16 -16 -16 -16 -16 -16 -16 -16 -16 -15
-17 -17 -17 -17 -16 -16 -16 -16 -16 -16 -15 -15 -15 -15 -15 -15 -16 -16 -16 -16 -16 -16 -16 -16 -16 -16 -16 -16 -16 -16 -16 -16 -16 -16 -16 -16 -16 -16
-17 -17 -17 -16 -16 -16 -16 -16 -16 -16 -16 -16 -16 -16 -15 -15 -16 -16 -16 -16 -16 -16 -16 -16 -16 -16 -16 -16 -16 -16 -16 -16 -16 -16 -16 -16 -16 -15

GFSNE_700_temp_003.txt.gz
Temp
-11 -11 -12 -11 -11 -11 -11 -10 -10 -10 -10 -9 -9 -10 -9 -10 -10 -9 -8 -8 -7 -6 -6 -6 -6 -5 -5 -5 -4 -4 -4 -4 -3 -3 -3 -3 -2 -2
-12 -12 -12 -12 -12 -12 -12 -12 -12 -12 -11 -10 -10 -10 -10 -11 -11 -11 -11 -9 -8 -7 -7 -8 -7 -6 -6 -5 -5 -4 -4 -4 -4 -4 -4 -3 -3 -3
-13 -13 -14 -14 -14 -15 -14 -14 -14 -14 -14 -14 -13 -13 -13 -12 -12 -12 -12 -12 -11 -9 -8 -8 -8 -8 -7 -7 -6 -6 -5 -5 -5 -5 -4 -4 -4 -3
-14 -15 -14 -15 -15 -15 -15 -15 -15 -15 -15 -15 -14 -14 -13 -14 -13 -13 -13 -13 -13 -13 -12 -9 -8 -8 -9 -9 -9 -8 -7 -6 -6 -6 -5 -4 -4 -4
-16 -16 -15 -15 -15 -15 -15 -15 -16 -16 -16 -16 -16 -15 -15 -15 -14 -14 -14 -14 -14 -14 -14 -12 -11 -10 -9 -10 -10 -10 -9 -8 -7 -7 -6 -5 -4 -4
-17 -17 -17 -17 -17 -16 -15 -16 -16 -16 -16 -16 -16 -15 -15 -15 -15 -15 -15 -15 -14 -15 -14 -14 -13 -11 -10 -10 -10 -10 -9 -9 -8 -7 -7 -6 -6 -5
-17 -18 -18 -18 -18 -16 -16 -15 -15 -16 -15 -15 -15 -15 -16 -16 -16 -16 -15 -15 -15 -15 -15 -15 -15 -15 -13 -12 -11 -11 -11 -11 -10 -9 -8 -7 -7 -6
-17 -17 -18 -18 -18 -18 -15 -16 -16 -16 -16 -15 -15 -15 -16 -16 -16 -15 -15 -15 -15 -15 -15 -14 -15 -14 -13 -13 -14 -13 -11 -11 -11 -10 -9 -9 -8 -7
-17 -17 -18 -18 -18 -17 -16 -16 -16 -16 -16 -16 -15 -15 -15 -15 -15 -15 -15 -15 -15 -15 -15 -15 -15 -15 -14 -13 -13 -13 -12 -10 -10 -11 -10 -9 -9 -8
-18 -18 -18 -17 -17 -17 -16 -16 -16 -16 -16 -16 -16 -15 -15 -15 -15 -15 -15 -15 -15 -15 -16 -15 -15 -15 -15 -15 -13 -13 -13 -12 -11 -11 -11 -11 -10 -9
-18 -18 -18 -18 -18 -17 -17 -17 -16 -16 -17 -16 -16 -16 -16 -16 -16 -16 -15 -16 -15 -15 -15 -15 -15 -15 -16 -15 -14 -14 -13 -13 -12 -12 -12 -11 -11 -10
-18 -18 -18 -18 -18 -18 -18 -17 -17 -17 -17 -17 -16 -16 -16 -16 -16 -16 -16 -16 -16 -15 -15 -17 -17 -17 -17 -16 -15 -15 -14 -13 -13 -13 -13 -12 -12 -12
-19 -19 -19 -19 -19 -18 -18 -18 -18 -17 -17 -17 -16 -16 -16 -16 -16 -17 -16 -16 -16 -16 -16 -18 -18 -18 -17 -17 -17 -16 -16 -15 -14 -14 -13 -13 -12 -12
-19 -20 -19 -19 -19 -19 -18 -18 -17 -17 -17 -17 -17 -17 -17 -16 -16 -16 -17 -17 -17 -17 -17 -17 -17 -18 -18 -17 -17 -16 -16 -16 -16 -15 -14 -13 -13 -13
-19 -19 -19 -19 -19 -18 -18 -18 -17 -17 -17 -18 -18 -18 -17 -17 -17 -17 -17 -17 -17 -17 -17 -17 -18 -18 -18 -18 -17 -17 -16 -16 -16 -16 -15 -14 -13 -13
-19 -19 -19 -19 -18 -18 -18 -18 -18 -18 -18 -18 -18 -17 -17 -17 -17 -17 -17 -17 -17 -17 -17 -17 -17 -18 -18 -18 -18 -18 -17 -16 -16 -16 -16 -15 -14 -14
-18 -18 -18 -18 -18 -18 -18 -17 -17 -18 -18 -18 -18 -17 -17 -17 -17 -17 -17 -17 -17 -17 -17 -18 -18 -17 -17 -17 -18 -18 -17 -17 -16 -16 -16 -16 -15 -15
-18 -18 -18 -18 -17 -17 -17 -17 -17 -17 -17 -17 -17 -17 -17 -17 -17 -17 -17 -17 -17 -18 -17 -17 -17 -18 -17 -17 -17 -17 -17 -17 -17 -17 -16 -16 -16 -15
-18 -18 -18 -17 -17 -17 -17 -17 -17 -17 -17 -17 -17 -17 -17 -17 -17 -16 -16 -17 -17 -17 -17 -17 -17 -17 -17 -17 -17 -17 -17 -17 -17 -17 -17 -16 -16 -16
-17 -17 -17 -17 -18 -17 -17 -17 -17 -16 -16 -16 -17 -17 -17 -17 -17 -16 -16 -16 -16 -17 -17 -17 -17 -16 -17 -17 -17 -17 -17 -16 -16 -16 -16 -16 -16 -16
-17 -17 -17 -18 -17 -16 -16 -16 -16 -16 -16 -16 -16 -16 -16 -16 -16 -16 -16 -16 -16 -16 -16 -16 -16 -16 -16 -16 -16 -16 -16 -16 -16 -16 -16 -16 -16 -16
-17 -17 -17 -18 -17 -16 -16 -16 -16 -16 -16 -16 -16 -16 -16 -16 -16 -16 -16 -16 -16 -16 -16 -16 -16 -16 -16 -16 -17 -16 -16 -16 -16 -16 -16 -16 -16 -16
-18 -17 -18 -18 -17 -17 -16 -16 -16 -16 -16 -16 -16 -16 -16 -16 -16 -16 -16 -16 -16 -16 -16 -16 -16 -16 -16 -16 -16 -16 -16 -16 -16 -16 -16 -16 -16 -16

GFSNE_700_temp_006.txt.gz
Temp
-12 -12 -12 -12 -12 -12 -12 -11 -12 -11 -10 -10 -10 -10 -9 -9 -9 -9 -9 -9 -9 -8 -7 -6 -6 -6 -5 -5 -5 -4 -4 -4 -4 -3 -3 -3 -3 -2
-13 -13 -13 -13 -13 -13 -13 -13 -13 -13 -11 -12 -12 -12 -11 -11 -10 -9 -10 -10 -10 -9 -9 -8 -8 -7 -7 -6 -6 -5 -5 -5 -4 -4 -4 -4 -4 -3
-14 -14 -13 -13 -13 -14 -14 -14 -14 -15 -14 -12 -13 -13 -13 -13 -13 -12 -11 -12 -12 -11 -11 -10 -9 -8 -8 -7 -7 -6 -6 -5 -5 -4 -4 -4 -4 -4
-14 -15 -15 -15 -15 -15 -15 -14 -14 -15 -15 -15 -15 -14 -14 -13 -13 -13 -13 -13 -13 -13 -12 -12 -11 -9 -9 -8 -7 -7 -6 -6 -5 -5 -5 -4 -4 -4
-16 -16 -16 -16 -16 -16 -16 -16 -16 -16 -16 -16 -15 -15 -14 -14 -14 -14 -13 -13 -13 -13 -13 -13 -13 -13 -11 -10 -9 -9 -8 -7 -6 -6 -5 -5 -4 -4
-16 -16 -17 -17 -17 -17 -17 -17 -17 -17 -17 -16 -15 -15 -15 -15 -14 -14 -14 -14 -14 -14 -14 -14 -14 -14 -13 -12 -10 -10 -9 -8 -7 -6 -5 -5 -5 -5
-17 -17 -17 -17 -17 -17 -17 -17 -17 -17 -17 -17 -16 -16 -15 -15 -16 -16 -16 -15 -15 -15 -15 -14 -15 -14 -13 -13 -13 -12 -10 -10 -9 -8 -8 -7 -7 -6
-17 -17 -17 -18 -18 -18 -19 -18 -18 -18 -17 -16 -16 -16 -15 -15 -15 -15 -15 -15 -15 -15 -15 -14 -15 -14 -14 -14 -13 -13 -12 -11 -10 -9 -9 -8 -8 -7
-18 -18 -18 -18 -18 -18 -19 -19 -18 -17 -17 -16 -16 -16 -16 -16 -16 -16 -16 -16 -16 -16 -16 -15 -15 -15 -15 -15 -15 -14 -13 -13 -12 -11 -10 -9 -9 -8
-18 -18 -18 -18 -18 -19 -19 -18 -18 -18 -17 -17 -17 -16 -16 -16 -16 -16 -16 -16 -16 -16 -16 -15 -15 -14 -15 -15 -14 -15 -15 -14 -13 -13 -12 -12 -11 -10
-19 -19 -19 -19 -19 -19 -19 -18 -18 -18 -18 -18 -17 -17 -16 -16 -16 -16 -16 -16 -15 -15 -16 -16 -15 -15 -15 -15 -15 -14 -14 -15 -14 -13 -13 -12 -12 -12
-19 -19 -20 -20 -19 -20 -19 -19 -18 -18 -17 -17 -17 -17 -17 -17 -17 -17 -16 -16 -16 -16 -16 -17 -17 -17 -16 -16 -15 -15 -15 -15 -14 -14 -13 -13 -12 -12
-19 -19 -20 -20 -20 -20 -20 -19 -19 -18 -18 -18 -17 -17 -17 -17 -16 -16 -17 -17 -16 -16 -17 -17 -17 -17 -18 -17 -17 -17 -16 -16 -15 -15 -14 -14 -13 -12
-19 -19 -19 -20 -20 -20 -19 -19 -19 -18 -18 -18 -17 -17 -17 -17 -17 -17 -16 -17 -16 -16 -17 -17 -17 -17 -17 -18 -17 -17 -17 -17 -17 -16 -16 -15 -14 -13
-19 -19 -19 -19 -19 -19 -19 -19 -19 -18 -18 -18 -18 -18 -18 -18 -17 -17 -17 -17 -17 -17 -17 -17 -17 -18 -17 -17 -18 -17 -17 -17 -16 -16 -16 -16 -15 -14
-19 -19 -19 -19 -19 -19 -19 -19 -19 -18 -18 -18 -18 -18 -18 -17 -17 -17 -17 -17 -17 -17 -17 -17 -17 -18 -17 -17 -18 -17 -18 -17 -17 -16 -16 -16 -16 -15
-18 -18 -18 -18 -18 -18 -19 -18 -18 -18 -18 -18 -18 -18 -18 -17 -17 -17 -17 -17 -17 -18 -18 -17 -17 -17 -17 -17 -17 -17 -17 -18 -17 -17 -17 -16 -16 -16
-18 -18 -18 -18 -18 -18 -18 -18 -18 -18 -18 -18 -18 -18 -17 -17 -17 -17 -17 -17 -17 -17 -17 -17 -17 -17 -17 -17 -17 -17 -17 -17 -17 -17 -17 -17 -17 -16
-18 -18 -18 -18 -18 -18 -17 -17 -17 -17 -17 -17 -17 -17 -18 -17 -17 -17 -17 -17 -16 -17 -17 -17 -17 -17 -17 -17 -17 -16 -17 -17 -17 -17 -17 -17 -16 -16
-17 -18 -18 -18 -17 -17 -17 -17 -17 -17 -17 -17 -17 -17 -17 -17 -17 -17 -17 -17 -16 -16 -16 -16 -17 -17 -17 -17 -17 -17 -17 -17 -17 -17 -16 -16 -16 -16
-18 -18 -18 -18 -18 -17 -17 -17 -17 -17 -17 -17 -16 -16 -16 -17 -17 -17 -16 -17 -16 -16 -16 -16 -16 -16 -17 -17 -17 -16 -16 -17 -16 -16 -16 -16 -16 -16
-18 -18 -18 -18 -18 -17 -17 -17 -17 -17 -17 -17 -16 -16 -16 -16 -16 -16 -16 -16 -16 -16 -16 -16 -16 -16 -16 -17 -17 -16 -16 -17 -17 -16 -16 -16 -16 -16
-18 -18 -19 -19 -19 -18 -17 -17 -17 -17 -17 -17 -16 -16 -16 -16 -16 -16 -16 -16 -16 -16 -16 -16 -16 -16 -16 -17 -17 -17 -17 -17 -17 -17 -17 -17 -17 -17

GFSNE_700_temp_009.txt.gz
Temp
-13 -13 -13 -13 -13 -13 -13 -13 -13 -12 -11 -11 -11 -12 -11 -11 -11 -10 -9 -8 -8 -8 -8 -7 -7 -7 -7 -6 -6 -5 -5 -4 -3 -3 -4 -3 -3 -3
-14 -14 -14 -14 -14 -13 -13 -13 -13 -14 -13 -12 -12 -12 -13 -13 -12 -11 -10 -10 -9 -9 -9 -9 -9 -8 -7 -7 -7 -6 -6 -5 -4 -4 -4 -4 -4 -4
-15 -15 -15 -15 -15 -14 -14 -14 -14 -14 -14 -14 -14 -13 -12 -13 -13 -13 -11 -10 -10 -10 -10 -10 -9 -8 -8 -7 -7 -7 -7 -6 -5 -4 -5 -4 -4 -4
-16 -16 -16 -16 -16 -16 -16 -15 -15 -15 -15 -15 -14 -14 -14 -13 -14 -14 -13 -12 -12 -12 -12 -11 -10 -9 -8 -8 -9 -8 -7 -7 -7 -6 -5 -5 -5 -5
-17 -17 -17 -17 -17 -17 -17 -16 -16 -16 -16 -16 -15 -15 -16 -15 -15 -14 -14 -13 -13 -13 -13 -12 -12 -11 -10 -10 -9 -9 -9 -8 -7 -7 -6 -6 -5 -5
-17 -17 -17 -17 -17 -18 -18 -17 -17 -17 -17 -17 -17 -17 -17 -16 -16 -16 -15 -15 -14 -13 -13 -13 -13 -13 -12 -11 -10 -9 -10 -9 -8 -8 -7 -6 -6 -6
-17 -17 -17 -17 -18 -18 -18 -18 -18 -17 -17 -17 -17 -17 -16 -16 -16 -15 -15 -14 -15 -15 -14 -14 -14 -14 -13 -12 -11 -11 -10 -10 -9 -9 -8 -7 -7 -6
-18 -18 -18 -18 -18 -18 -18 -18 -18 -18 -18 -18 -17 -17 -16 -16 -16 -16 -15 -15 -15 -15 -15 -15 -15 -14 -14 -14 -14 -13 -13 -11 -11 -10 -9 -8 -8 -8
-18 -18 -18 -18 -19 -18 -18 -18 -19 -19 -19 -19 -18 -17 -17 -17 -16 -16 -16 -16 -16 -15 -15 -15 -15 -15 -15 -15 -15 -15 -13 -13 -12 -11 -11 -10 -9 -9
-18 -19 -19 -19 -19 -19 -19 -19 -19 -19 -19 -19 -19 -18 -17 -17 -17 -16 -16 -16 -16 -15 -15 -15 -15 -15 -15 -15 -14 -15 -14 -13 -13 -13 -12 -12 -11 -11
-19 -19 -19 -19 -20 -20 -20 -19 -19 -19 -19 -19 -18 -17 -17 -17 -17 -17 -17 -17 -16 -16 -16 -15 -15 -15 -15 -15 -14 -14 -14 -14 -14 -13 -13 -12 -11 -11
-18 -19 -19 -20 -20 -19 -20 -20 -19 -19 -19 -19 -18 -18 -18 -18 -17 -17 -17 -16 -16 -16 -16 -16 -16 -15 -15 -15 -15 -15 -15 -15 -15 -15 -14 -13 -13 -12
-18 -19 -19 -19 -20 -20 -20 -20 -19 -19 -19 -19 -18 -18 -18 -18 -17 -17 -17 -17 -16 -16 -17 -17 -16 -16 -16 -15 -16 -16 -16 -15 -15 -15 -15 -14 -13 -13
-18 -19 -19 -19 -20 -20 -20 -20 -19 -19 -19 -19 -18 -18 -18 -18 -18 -18 -18 -17 -17 -16 -17 -17 -17 -17 -17 -17 -16 -16 -17 -17 -17 -17 -16 -16 -15 -14
-18 -18 -19 -19 -19 -20 -20 -20 -20 -20 -19 -19 -18 -18 -18 -18 -18 -18 -18 -18 -17 -17 -17 -17 -17 -18 -18 -17 -17 -16 -17 -17 -17 -17 -17 -17 -16 -16
-18 -18 -18 -19 -19 -19 -19 -19 -19 -19 -19 -19 -18 -18 -18 -18 -18 -18 -18 -18 -17 -18 -17 -17 -17 -17 -17 -17 -17 -17 -17 -17 -17 -17 -17 -17 -16 -16
-18 -18 -18 -18 -18 -19 -19 -19 -19 -19 -19 -19 -18 -18 -18 -18 -18 -18 -17 -17 -17 -17 -18 -18 -18 -18 -18 -18 -17 -17 -17 -17 -17 -17 -17 -17 -17 -16
-17 -18 -18 -18 -18 -18 -18 -18 -18 -18 -18 -18 -18 -18 -18 -18 -18 -17 -17 -17 -17 -17 -17 -17 -17 -17 -18 -18 -17 -17 -17 -17 -17 -17 -17 -17 -17 -17
-17 -17 -18 -18 -18 -17 -17 -17 -18 -18 -18 -18 -18 -18 -18 -17 -18 -18 -17 -17 -17 -17 -17 -17 -17 -17 -17 -17 -17 -17 -17 -17 -17 -17 -17 -17 -16 -17
-18 -18 -18 -18 -18 -18 -18 -18 -18 -18 -18 -18 -18 -17 -17 -17 -17 -17 -17 -17 -17 -17 -17 -17 -17 -17 -16 -16 -16 -17 -17 -17 -17 -17 -17 -17 -16 -16
-18 -18 -18 -18 -18 -18 -18 -18 -18 -18 -17 -17 -17 -17 -17 -17 -17 -17 -17 -17 -17 -17 -17 -17 -17 -17 -16 -16 -16 -16 -16 -16 -16 -16 -16 -16 -16 -16
-18 -18 -19 -18 -18 -18 -18 -18 -18 -18 -17 -17 -17 -17 -17 -17 -17 -16 -16 -16 -16 -16 -16 -16 -17 -17 -17 -17 -17 -16 -16 -17 -17 -16 -16 -16 -16 -16
-18 -19 -19 -19 -19 -19 -19 -19 -18 -18 -18 -17 -17 -17 -17 -17 -17 -17 -16 -16 -16 -16 -16 -16 -16 -16 -16 -17 -17 -16 -16 -17 -17 -17 -17 -17 -16 -17

GFSNE_700_temp_012.txt.gz
Temp
-14 -14 -14 -14 -14 -14 -14 -13 -13 -13 -13 -12 -12 -12 -13 -12 -11 -11 -11 -11 -11 -9 -8 -8 -7 -7 -6 -6 -6 -6 -5 -5 -4 -4 -4 -3 -3 -3
-15 -15 -16 -16 -15 -15 -15 -14 -14 -13 -14 -14 -13 -12 -13 -13 -13 -12 -12 -11 -11 -10 -9 -9 -9 -8 -7 -7 -7 -7 -6 -6 -5 -5 -4 -4 -4 -4
-15 -16 -16 -16 -16 -16 -16 -16 -15 -15 -16 -14 -14 -14 -13 -14 -14 -14 -14 -12 -12 -10 -10 -9 -9 -8 -8 -8 -7 -8 -7 -6 -6 -5 -5 -5 -5 -5
-16 -16 -16 -16 -16 -16 -16 -16 -16 -16 -16 -15 -15 -15 -15 -15 -14 -14 -14 -14 -12 -12 -11 -10 -10 -10 -9 -10 -8 -8 -8 -8 -7 -6 -5 -5 -5 -5
-16 -16 -17 -17 -17 -17 -17 -17 -17 -17 -17 -16 -16 -16 -16 -15 -15 -15 -14 -14 -14 -13 -12 -12 -11 -11 -11 -11 -11 -10 -9 -8 -8 -8 -7 -6 -6 -6
-16 -17 -17 -17 -17 -17 -17 -17 -17 -17 -17 -17 -17 -17 -17 -17 -17 -16 -15 -15 -15 -15 -13 -12 -12 -12 -12 -12 -11 -10 -9 -9 -9 -8 -8 -7 -6 -7
-17 -17 -17 -18 -18 -18 -18 -18 -18 -18 -18 -18 -17 -17 -17 -17 -17 -17 -16 -15 -15 -15 -15 -13 -13 -13 -12 -12 -11 -11 -11 -11 -11 -10 -9 -8 -8 -7
-17 -17 -18 -18 -18 -18 -18 -19 -18 -18 -18 -18 -18 -18 -18 -18 -17 -17 -16 -15 -15 -15 -14 -14 -13 -13 -13 -13 -12 -12 -11 -11 -11 -10 -10 -10 -9 -8
-17 -18 -18 -18 -18 -19 -19 -19 -19 -19 -19 -19 -19 -19 -18 -18 -18 -17 -17 -16 -15 -15 -15 -14 -14 -13 -13 -12 -13 -13 -13 -12 -11 -11 -10 -10 -10 -9
-17 -18 -18 -18 -19 -19 -20 -20 -20 -20 -19 -19 -19 -19 -19 -18 -18 -17 -17 -16 -16 -15 -15 -15 -14 -14 -14 -14 -14 -14 -14 -13 -13 -12 -11 -11 -10 -9
-17 -18 -18 -18 -19 -20 -20 -20 -20 -20 -20 -19 -19 -19 -18 -18 -18 -17 -17 -16 -16 -16 -16 -15 -15 -15 -15 -15 -15 -14 -14 -14 -13 -13 -12 -11 -11 -11
-17 -18 -18 -19 -19 -20 -20 -20 -20 -20 -20 -20 -19 -19 -18 -18 -18 -17 -17 -17 -16 -16 -16 -16 -16 -16 -15 -15 -15 -15 -15 -14 -14 -14 -13 -13 -12 -12
-17 -17 -18 -19 -19 -20 -20 -20 -20 -20 -20 -19 -19 -19 -19 -18 -18 -18 -17 -17 -17 -16 -16 -17 -16 -16 -16 -15 -15 -15 -15 -15 -15 -15 -14 -13 -13 -12
-17 -18 -18 -18 -19 -19 -20 -20 -21 -20 -20 -19 -19 -19 -18 -18 -18 -18 -17 -17 -17 -16 -16 -16 -16 -17 -16 -16 -15 -16 -16 -16 -15 -15 -15 -15 -14 -14
-17 -18 -18 -18 -18 -19 -20 -20 -20 -20 -20 -20 -20 -19 -19 -18 -18 -18 -18 -18 -18 -17 -17 -16 -16 -17 -16 -16 -16 -16 -16 -16 -16 -16 -16 -16 -15 -15
-17 -18 -18 -18 -18 -19 -19 -19 -19 -19 -19 -19 -19 -19 -19 -18 -18 -18 -18 -18 -18 -17 -17 -17 -17 -17 -17 -17 -17 -17 -17 -16 -16 -16 -16 -17 -17 -17
-18 -18 -18 -19 -19 -18 -18 -19 -19 -19 -19 -19 -19 -19 -19 -18 -18 -18 -18 -18 -18 -17 -17 -17 -17 -17 -17 -17 -17 -17 -17 -17 -17 -17 -17 -17 -17 -17
-18 -18 -18 -18 -18 -18 -18 -18 -19 -19 -19 -19 -19 -19 -18 -18 -18 -18 -18 -18 -17 -17 -17 -17 -17 -17 -17 -17 -17 -17 -17 -17 -17 -17 -17 -17 -17 -17
-18 -18 -18 -18 -18 -18 -18 -18 -18 -18 -18 -18 -18 -18 -18 -18 -18 -18 -18 -17 -17 -17 -17 -17 -17 -17 -17 -17 -17 -17 -17 -17 -17 -17 -17 -17 -17 -17
-18 -18 -18 -18 -18 -18 -18 -18 -18 -18 -18 -18 -18 -18 -18 -18 -18 -17 -17 -17 -17 -16 -17 -17 -17 -17 -17 -17 -17 -16 -16 -17 -17 -17 -17 -17 -17 -17
-18 -18 -18 -19 -18 -19 -18 -18 -18 -18 -18 -18 -18 -18 -18 -18 -18 -17 -17 -17 -17 -17 -17 -17 -16 -17 -17 -17 -16 -16 -16 -16 -16 -16 -16 -16 -16 -16
-18 -19 -19 -19 -19 -19 -19 -19 -19 -18 -18 -18 -18 -18 -18 -17 -17 -17 -17 -17 -17 -17 -17 -17 -17 -17 -16 -17 -17 -17 -17 -17 -17 -16 -16 -16 -16 -16
-19 -19 -19 -19 -19 -19 -19 -19 -19 -19 -18 -18 -18 -18 -17 -17 -17 -17 -17 -17 -17 -17 -17 -17 -17 -17 -17 -17 -17 -16 -17 -17 -17 -17 -16 -16 -16 -16

GFSNE_700_temp_015.txt.gz
Temp
-13 -14 -14 -14 -15 -15 -15 -15 -15 -15 -14 -13 -14 -14 -14 -13 -13 -13 -13 -12 -11 -11 -10 -9 -9 -8 -7 -7 -5 -6 -5 -4 -5 -5 -4 -4 -4 -3
-14 -16 -15 -14 -15 -15 -16 -16 -16 -16 -15 -15 -14 -14 -14 -14 -14 -14 -13 -13 -12 -11 -11 -10 -10 -9 -9 -8 -7 -7 -6 -6 -5 -5 -5 -4 -4 -4
-15 -16 -16 -16 -16 -16 -16 -16 -16 -17 -16 -16 -15 -14 -14 -15 -14 -14 -14 -13 -12 -12 -12 -11 -11 -10 -10 -9 -8 -8 -6 -6 -6 -6 -5 -5 -5 -5
-16 -17 -16 -16 -16 -16 -16 -16 -16 -17 -17 -17 -16 -15 -15 -15 -15 -15 -15 -14 -13 -13 -12 -12 -11 -11 -10 -9 -9 -9 -9 -8 -7 -7 -6 -5 -5 -5
-16 -17 -16 -16 -16 -16 -17 -17 -17 -17 -17 -17 -17 -17 -16 -16 -16 -16 -15 -14 -14 -13 -13 -12 -12 -12 -11 -11 -10 -9 -9 -9 -8 -8 -7 -6 -6 -6
-17 -17 -17 -17 -17 -17 -17 -17 -17 -17 -18 -18 -18 -18 -18 -17 -17 -17 -16 -16 -14 -14 -14 -13 -12 -13 -12 -13 -12 -10 -9 -9 -9 -8 -8 -8 -7 -7
-17 -17 -17 -17 -17 -18 -18 -18 -18 -18 -19 -19 -18 -18 -18 -18 -18 -17 -17 -16 -16 -15 -15 -15 -14 -13 -13 -12 -12 -12 -12 -12 -11 -10 -10 -9 -8 -8
-16 -17 -17 -17 -17 -18 -18 -18 -19 -19 -19 -20 -19 -19 -19 -19 -18 -18 -18 -17 -16 -16 -15 -15 -15 -14 -13 -13 -13 -13 -13 -13 -13 -12 -12 -12 -10 -9
-17 -17 -17 -17 -17 -18 -19 -19 -19 -20 -20 -20 -20 -20 -20 -20 -19 -18 -18 -17 -16 -16 -16 -15 -15 -15 -15 -14 -14 -14 -13 -13 -13 -12 -11 -11 -10 -9
-17 -17 -17 -17 -18 -18 -19 -19 -20 -20 -21 -21 -21 -20 -19 -19 -19 -19 -18 -17 -17 -16 -16 -15 -15 -15 -14 -14 -14 -14 -14 -13 -13 -12 -11 -10 -10 -10
-17 -17 -17 -17 -18 -19 -19 -20 -20 -21 -21 -21 -21 -20 -21 -19 -19 -19 -18 -17 -17 -16 -16 -15 -15 -15 -15 -14 -13 -13 -13 -13 -13 -13 -12 -11 -10 -10
-17 -17 -17 -18 -18 -19 -19 -20 -20 -20 -20 -20 -20 -20 -20 -19 -19 -19 -18 -17 -17 -16 -16 -16 -15 -15 -15 -15 -15 -14 -14 -14 -13 -12 -12 -12 -12 -11
-17 -17 -17 -18 -18 -19 -19 -20 -21 -21 -21 -20 -20 -20 -19 -19 -19 -18 -18 -17 -17 -16 -16 -16 -16 -15 -15 -15 -15 -15 -14 -14 -13 -13 -13 -13 -13 -12
-17 -17 -17 -18 -18 -18 -19 -20 -20 -21 -21 -21 -20 -20 -20 -19 -19 -18 -18 -18 -18 -17 -17 -16 -16 -15 -15 -15 -14 -15 -15 -15 -14 -14 -13 -13 -13 -13
-17 -17 -17 -18 -18 -18 -19 -19 -19 -20 -20 -20 -20 -20 -20 -19 -19 -19 -19 -18 -18 -18 -17 -16 -16 -16 -16 -15 -16 -16 -15 -15 -15 -15 -14 -14 -14 -14
-17 -18 -18 -18 -19 -18 -18 -19 -19 -19 -19 -20 -20 -19 -19 -19 -19 -19 -18 -18 -18 -18 -18 -17 -17 -17 -17 -17 -17 -17 -17 -16 -16 -16 -16 -16 -15 -15
-17 -18 -18 -19 -19 -19 -18 -18 -19 -19 -19 -19 -19 -19 -19 -19 -19 -18 -18 -18 -18 -18 -17 -17 -17 -17 -17 -17 -17 -17 -17 -17 -17 -17 -16 -16 -16 -17
-18 -18 -18 -19 -19 -18 -18 -18 -18 -19 -19 -19 -19 -19 -19 -19 -19 -18 -18 -18 -18 -18 -18 -18 -18 -18 -18 -18 -18 -17 -17 -17 -17 -17 -17 -16 -17 -17
-18 -18 -18 -19 -19 -18 -18 -18 -18 -18 -18 -19 -19 -19 -19 -19 -18 -18 -18 -18 -18 -18 -18 -18 -17 -17 -17 -18 -18 -17 -17 -17 -17 -17 -17 -16 -16 -17
-18 -18 -18 -19 -19 -19 -19 -18 -18 -18 -18 -18 -19 -18 -18 -18 -18 -18 -18 -18 -17 -17 -18 -18 -17 -17 -17 -17 -17 -17 -17 -17 -17 -17 -17 -17 -17 -17
-18 -19 -19 -19 -19 -19 -19 -19 -19 -18 -18 -18 -18 -18 -18 -18 -18 -18 -18 -18 -18 -17 -17 -17 -17 -17 -17 -17 -17 -17 -17 -17 -17 -17 -17 -16 -16 -17
-18 -18 -19 -19 -19 -19 -19 -19 -19 -19 -19 -18 -18 -18 -18 -18 -18 -18 -18 -17 -17 -17 -17 -17 -17 -17 -17 -17 -17 -17 -17 -17 -17 -17 -17 -17 -17 -16
-18 -18 -19 -19 -19 -19 -19 -19 -19 -19 -19 -19 -19 -18 -18 -18 -18 -18 -18 -17 -17 -17 -17 -17 -17 -17 -16 -17 -17 -17 -17 -17 -17 -17 -17 -17 -17 -17

GFSNE_700_temp_021.txt.gz
Temp
-14 -14 -14 -15 -15 -15 -15 -16 -16 -15 -15 -14 -14 -15 -15 -15 -15 -15 -15 -14 -14 -14 -13 -13 -12 -12 -11 -10 -8 -7 -6 -6 -6 -5 -4 -4 -3 -3
-15 -15 -15 -15 -15 -16 -16 -16 -17 -16 -16 -16 -15 -15 -15 -15 -15 -15 -15 -15 -14 -14 -14 -13 -13 -12 -12 -11 -10 -9 -8 -7 -7 -6 -5 -5 -4 -4
-15 -15 -15 -15 -15 -16 -16 -16 -16 -17 -17 -15 -16 -16 -16 -16 -16 -16 -16 -15 -15 -14 -14 -14 -13 -13 -12 -12 -11 -10 -9 -8 -7 -7 -6 -5 -5 -5
-15 -15 -15 -16 -16 -16 -16 -16 -17 -17 -17 -16 -16 -16 -16 -16 -16 -16 -17 -16 -16 -15 -15 -14 -14 -13 -13 -12 -12 -11 -11 -10 -9 -8 -7 -6 -6 -6
-15 -15 -16 -16 -16 -16 -16 -16 -17 -17 -17 -17 -16 -17 -17 -17 -17 -17 -17 -17 -17 -16 -16 -15 -14 -14 -13 -13 -13 -12 -11 -11 -10 -9 -7 -6 -7 -6
-16 -16 -16 -16 -16 -16 -16 -16 -17 -17 -18 -18 -18 -18 -19 -19 -19 -19 -18 -19 -18 -17 -17 -16 -15 -14 -13 -13 -13 -12 -12 -12 -11 -10 -8 -7 -7 -7
-16 -16 -16 -16 -16 -16 -17 -17 -17 -18 -18 -19 -19 -19 -19 -20 -20 -20 -20 -19 -19 -18 -18 -17 -16 -15 -14 -13 -13 -13 -12 -12 -12 -11 -10 -9 -9 -8
-16 -16 -16 -16 -16 -16 -17 -17 -18 -18 -19 -19 -20 -21 -21 -21 -21 -20 -20 -19 -19 -19 -18 -18 -17 -16 -15 -14 -13 -13 -13 -13 -12 -11 -11 -10 -9 -9
-16 -16 -16 -16 -16 -17 -17 -17 -18 -19 -19 -20 -20 -21 -21 -21 -21 -21 -21 -20 -20 -20 -19 -18 -18 -17 -16 -16 -14 -13 -13 -13 -12 -12 -11 -11 -10 -10
-16 -16 -16 -16 -17 -17 -17 -18 -18 -19 -20 -21 -21 -21 -21 -21 -21 -21 -21 -21 -20 -20 -20 -19 -18 -18 -17 -16 -15 -14 -13 -13 -13 -13 -13 -12 -11 -10
-17 -17 -17 -17 -17 -17 -18 -18 -18 -19 -20 -20 -21 -21 -21 -21 -21 -21 -21 -21 -20 -20 -20 -19 -18 -18 -17 -16 -16 -16 -14 -14 -13 -14 -13 -13 -13 -12
-17 -17 -17 -17 -17 -18 -18 -18 -18 -19 -19 -20 -20 -21 -21 -21 -20 -20 -21 -21 -21 -21 -20 -19 -18 -18 -18 -17 -16 -16 -16 -15 -14 -14 -14 -14 -13 -13
-17 -17 -17 -17 -18 -18 -18 -18 -18 -19 -19 -20 -20 -20 -21 -21 -21 -20 -20 -20 -20 -20 -20 -19 -18 -18 -17 -17 -17 -16 -16 -16 -15 -15 -14 -14 -13 -13
-18 -18 -18 -17 -18 -18 -18 -18 -18 -19 -19 -20 -20 -20 -20 -20 -20 -20 -20 -19 -19 -19 -19 -18 -18 -18 -18 -17 -17 -16 -16 -15 -15 -15 -15 -14 -14 -14
-18 -18 -18 -18 -18 -18 -18 -18 -18 -19 -19 -19 -20 -20 -20 -20 -20 -20 -19 -19 -19 -19 -19 -19 -19 -18 -18 -17 -17 -17 -16 -15 -15 -15 -15 -14 -14 -14
-18 -18 -18 -18 -18 -18 -19 -19 -18 -18 -19 -19 -19 -19 -19 -19 -19 -19 -19 -19 -19 -19 -19 -19 -19 -19 -18 -17 -17 -17 -17 -17 -16 -16 -16 -15 -15 -15
-18 -18 -18 -18 -19 -19 -19 -19 -19 -19 -19 -19 -19 -19 -19 -19 -19 -19 -19 -19 -19 -19 -19 -19 -19 -18 -18 -18 -18 -18 -17 -17 -17 -16 -16 -16 -16 -16
-18 -18 -18 -18 -19 -19 -19 -19 -19 -19 -19 -19 -19 -19 -19 -19 -19 -19 -19 -19 -19 -19 -19 -19 -19 -18 -18 -18 -18 -18 -18 -18 -18 -17 -17 -17 -17 -17
-18 -18 -18 -18 -18 -19 -19 -19 -19 -19 -19 -19 -19 -19 -19 -19 -19 -19 -19 -19 -19 -19 -19 -19 -19 -19 -19 -18 -18 -18 -18 -18 -18 -18 -18 -17 -17 -16
-18 -18 -18 -18 -18 -18 -19 -19 -19 -19 -19 -19 -19 -19 -19 -19 -19 -19 -19 -19 -18 -18 -18 -18 -18 -18 -18 -18 -18 -18 -18 -18 -18 -18 -17 -17 -17 -17
-18 -18 -18 -18 -18 -18 -18 -18 -19 -19 -19 -19 -19 -19 -19 -19 -19 -19 -18 -18 -18 -18 -18 -18 -18 -18 -18 -18 -18 -18 -18 -18 -18 -17 -17 -17 -17 -17
-18 -18 -18 -18 -18 -18 -18 -18 -19 -19 -19 -19 -19 -19 -19 -19 -19 -19 -19 -18 -18 -18 -18 -18 -18 -17 -17 -18 -17 -17 -17 -17 -17 -17 -17 -17 -17 -17
-18 -18 -18 -18 -18 -18 -18 -18 -18 -19 -19 -19 -19 -19 -19 -19 -19 -19 -19 -19 -18 -18 -18 -18 -18 -18 -17 -17 -17 -17 -17 -17 -17 -17 -17 -17 -17 -17

GFSNE_700_temp_024.txt.gz
Temp
-14 -14 -14 -15 -16 -17 -17 -17 -17 -15 -14 -16 -16 -17 -17 -17 -16 -15 -15 -15 -14 -14 -14 -14 -14 -13 -13 -12 -11 -10 -9 -7 -6 -5 -5 -4 -4 -4
-14 -14 -15 -16 -17 -17 -17 -18 -18 -18 -16 -17 -18 -18 -18 -17 -16 -15 -15 -15 -15 -15 -14 -14 -14 -14 -13 -13 -12 -12 -10 -9 -8 -6 -6 -5 -5 -4
-15 -15 -15 -16 -17 -16 -17 -17 -18 -19 -19 -14 -17 -18 -17 -16 -16 -15 -15 -15 -16 -15 -15 -15 -15 -14 -14 -13 -13 -12 -11 -10 -9 -8 -7 -6 -5 -5
-15 -15 -15 -16 -16 -16 -16 -16 -17 -18 -17 -16 -16 -16 -16 -16 -16 -16 -16 -16 -17 -18 -17 -16 -15 -15 -14 -14 -13 -13 -12 -11 -10 -9 -8 -7 -6 -5
-15 -16 -16 -16 -16 -16 -16 -16 -16 -16 -17 -17 -16 -17 -17 -17 -17 -18 -18 -19 -18 -18 -17 -17 -17 -16 -14 -14 -13 -13 -13 -12 -10 -10 -9 -8 -7 -6
-16 -16 -16 -16 -16 -16 -16 -16 -17 -17 -17 -17 -17 -18 -18 -20 -21 -20 -20 -20 -18 -18 -18 -18 -18 -16 -15 -14 -14 -13 -13 -12 -11 -10 -10 -9 -8 -7
-16 -16 -16 -16 -16 -16 -16 -16 -17 -17 -17 -18 -18 -19 -20 -21 -20 -20 -20 -21 -19 -18 -18 -18 -19 -18 -17 -16 -14 -14 -13 -12 -12 -11 -10 -9 -9 -7
-16 -16 -16 -16 -16 -16 -16 -17 -17 -17 -18 -18 -19 -20 -20 -21 -21 -21 -20 -20 -20 -19 -18 -18 -18 -19 -18 -18 -16 -14 -13 -13 -12 -11 -10 -9 -8 -8
-16 -16 -16 -16 -16 -17 -17 -17 -17 -18 -18 -19 -19 -21 -21 -21 -21 -21 -21 -20 -20 -19 -19 -19 -18 -18 -18 -18 -15 -15 -14 -13 -12 -11 -11 -10 -11 -11
-16 -16 -17 -17 -17 -17 -17 -17 -18 -18 -18 -19 -20 -20 -21 -21 -21 -21 -21 -21 -20 -20 -20 -19 -19 -19 -18 -17 -16 -15 -15 -13 -12 -12 -12 -11 -11 -11
-16 -16 -17 -17 -17 -17 -17 -18 -18 -18 -18 -19 -19 -19 -20 -21 -21 -21 -20 -21 -20 -20 -20 -19 -19 -19 -18 -17 -16 -15 -15 -14 -13 -13 -13 -12 -12 -11
-16 -17 -17 -17 -17 -17 -18 -18 -18 -18 -18 -19 -19 -20 -20 -21 -21 -21 -20 -20 -20 -20 -20 -20 -20 -19 -18 -17 -16 -16 -16 -15 -14 -13 -13 -13 -13 -12
-17 -17 -17 -18 -18 -18 -18 -18 -18 -18 -18 -19 -19 -20 -20 -20 -21 -21 -20 -20 -20 -20 -20 -20 -20 -19 -19 -18 -17 -16 -16 -15 -14 -14 -14 -14 -13 -13
-17 -17 -17 -18 -18 -18 -18 -18 -18 -18 -18 -19 -19 -20 -20 -20 -20 -20 -20 -20 -20 -20 -20 -20 -19 -19 -18 -18 -18 -17 -16 -16 -15 -15 -14 -14 -14 -14
-17 -17 -17 -18 -18 -18 -18 -18 -18 -18 -18 -19 -19 -20 -20 -20 -20 -20 -20 -19 -19 -19 -19 -19 -19 -18 -18 -18 -18 -17 -16 -16 -16 -15 -15 -14 -14 -14
-17 -17 -18 -18 -18 -18 -18 -18 -18 -19 -19 -19 -19 -19 -19 -19 -19 -19 -19 -19 -19 -19 -19 -19 -19 -19 -19 -18 -18 -18 -17 -16 -16 -15 -15 -14 -14 -14
-17 -17 -18 -18 -18 -18 -19 -19 -19 -19 -19 -19 -19 -19 -19 -19 -19 -19 -19 -19 -19 -19 -19 -19 -19 -19 -19 -19 -18 -17 -17 -17 -16 -16 -15 -15 -15 -14
-17 -17 -18 -18 -18 -18 -18 -19 -19 -19 -19 -19 -19 -19 -19 -19 -19 -19 -19 -19 -19 -19 -19 -19 -18 -18 -18 -18 -18 -18 -17 -17 -17 -16 -16 -16 -16 -16
-17 -17 -18 -18 -18 -18 -18 -18 -19 -19 -19 -19 -19 -19 -19 -19 -19 -19 -19 -19 -19 -19 -19 -19 -18 -18 -18 -18 -18 -18 -18 -18 -17 -17 -17 -17 -16 -16
-17 -17 -17 -18 -18 -18 -18 -18 -18 -19 -19 -19 -19 -19 -19 -19 -19 -19 -19 -19 -19 -19 -19 -19 -18 -18 -18 -17 -18 -18 -18 -18 -18 -18 -17 -17 -17 -16
-17 -17 -18 -18 -18 -18 -18 -18 -18 -18 -19 -19 -19 -19 -19 -19 -19 -19 -19 -19 -19 -18 -18 -18 -18 -18 -18 -18 -18 -18 -18 -18 -18 -18 -18 -18 -17 -17
-17 -18 -18 -18 -18 -18 -18 -18 -18 -18 -18 -19 -19 -19 -19 -19 -19 -19 -19 -19 -19 -18 -18 -18 -18 -18 -18 -18 -18 -18 -18 -18 -18 -17 -17 -17 -17 -17
-17 -18 -18 -18 -18 -18 -18 -18 -18 -18 -18 -18 -19 -19 -19 -19 -19 -19 -19 -19 -19 -18 -19 -18 -18 -18 -18 -18 -18 -18 -18 -18 -17 -17 -17 -17 -17 -17

GFSNE_700_temp_027.txt.gz
Temp
-12 -13 -13 -14 -15 -15 -15 -16 -16 -15 -15 -16 -17 -17 -17 -17 -17 -17 -16 -15 -14 -14 -14 -14 -13 -14 -14 -14 -13 -12 -12 -11 -9 -8 -6 -5 -5 -4
-13 -14 -14 -14 -14 -15 -16 -16 -17 -16 -16 -16 -17 -17 -17 -18 -18 -17 -15 -15 -14 -14 -14 -14 -14 -14 -14 -14 -13 -13 -12 -12 -11 -10 -8 -6 -5 -5
-14 -13 -14 -14 -15 -16 -16 -17 -17 -17 -17 -16 -17 -17 -17 -17 -16 -16 -16 -15 -15 -15 -15 -15 -14 -15 -14 -14 -14 -13 -13 -13 -12 -11 -9 -7 -6 -5
-14 -14 -15 -15 -16 -16 -16 -16 -16 -16 -17 -17 -15 -16 -16 -16 -16 -16 -16 -18 -17 -16 -17 -17 -16 -15 -15 -15 -14 -14 -13 -13 -13 -12 -11 -9 -7 -6
-15 -15 -15 -15 -15 -15 -16 -16 -16 -16 -16 -16 -16 -16 -16 -17 -17 -18 -19 -19 -19 -19 -18 -17 -17 -17 -17 -16 -15 -14 -14 -13 -13 -12 -11 -10 -9 -7
-15 -15 -15 -15 -15 -16 -16 -16 -16 -16 -16 -17 -17 -17 -17 -18 -19 -19 -19 -19 -19 -20 -19 -18 -17 -17 -17 -17 -16 -15 -14 -14 -13 -12 -12 -11 -10 -8
-15 -15 -16 -16 -16 -16 -16 -16 -16 -16 -17 -17 -17 -17 -18 -19 -20 -19 -19 -19 -19 -20 -19 -18 -17 -17 -17 -17 -16 -16 -14 -14 -13 -13 -12 -11 -10 -9
-16 -16 -16 -16 -16 -16 -16 -16 -16 -17 -17 -17 -17 -18 -19 -20 -20 -20 -20 -20 -20 -19 -19 -18 -18 -17 -17 -17 -17 -16 -15 -14 -13 -13 -12 -11 -11 -10
-16 -16 -16 -16 -16 -17 -17 -17 -17 -17 -17 -17 -17 -18 -20 -20 -20 -20 -20 -20 -20 -19 -19 -19 -18 -18 -18 -18 -18 -17 -16 -14 -13 -13 -12 -11 -10 -10
-16 -16 -16 -16 -17 -17 -17 -17 -17 -18 -18 -18 -18 -18 -19 -19 -20 -20 -20 -20 -20 -20 -20 -19 -19 -18 -18 -18 -18 -17 -16 -15 -14 -13 -13 -12 -11 -10
-16 -16 -16 -17 -17 -17 -17 -17 -17 -18 -18 -18 -18 -18 -19 -19 -20 -20 -21 -21 -20 -20 -19 -19 -19 -19 -18 -18 -18 -17 -16 -15 -14 -13 -13 -12 -11 -13
-16 -16 -16 -17 -17 -17 -17 -17 -17 -18 -18 -18 -18 -19 -19 -19 -21 -21 -20 -20 -20 -19 -19 -19 -19 -19 -18 -17 -17 -17 -16 -15 -15 -14 -13 -13 -12 -13
-16 -16 -17 -17 -17 -17 -18 -18 -18 -18 -18 -18 -18 -19 -19 -19 -20 -20 -20 -20 -20 -20 -20 -20 -19 -19 -19 -18 -18 -17 -17 -16 -15 -14 -13 -13 -13 -14
-16 -16 -17 -17 -17 -17 -18 -18 -18 -18 -18 -18 -18 -19 -19 -19 -19 -20 -20 -19 -19 -20 -20 -20 -20 -19 -19 -19 -18 -18 -17 -16 -15 -15 -14 -13 -14 -14
-16 -17 -17 -17 -17 -17 -17 -18 -18 -18 -18 -19 -19 -19 -19 -19 -19 -19 -19 -19 -19 -19 -19 -19 -19 -19 -19 -19 -19 -18 -18 -16 -15 -15 -15 -14 -14 -14
-16 -16 -17 -17 -17 -17 -17 -18 -18 -18 -19 -19 -19 -19 -19 -19 -19 -19 -19 -19 -18 -18 -18 -18 -19 -19 -19 -19 -19 -18 -18 -17 -16 -15 -15 -15 -15 -15
-17 -17 -17 -17 -17 -17 -18 -18 -18 -18 -19 -19 -19 -19 -19 -19 -19 -19 -19 -19 -19 -18 -18 -18 -18 -19 -18 -19 -19 -18 -18 -18 -17 -16 -15 -15 -15 -14
-17 -17 -17 -17 -17 -17 -18 -18 -18 -18 -19 -19 -19 -19 -19 -19 -19 -19 -19 -19 -19 -19 -19 -19 -18 -18 -18 -18 -18 -18 -18 -17 -18 -16 -15 -15 -15 -14
-17 -17 -17 -17 -17 -17 -18 -18 -18 -18 -18 -19 -19 -19 -19 -19 -19 -19 -19 -19 -19 -19 -19 -19 -18 -18 -18 -18 -18 -18 -18 -18 -18 -17 -17 -16 -16 -15
-17 -17 -17 -17 -17 -17 -18 -18 -18 -18 -18 -18 -19 -19 -19 -19 -19 -19 -19 -19 -19 -19 -19 -19 -18 -18 -18 -17 -18 -18 -18 -17 -18 -18 -17 -17 -16 -16
-17 -17 -17 -17 -17 -17 -18 -18 -18 -18 -18 -18 -18 -19 -19 -19 -19 -19 -19 -19 -19 -19 -18 -18 -18 -18 -18 -18 -18 -18 -18 -18 -18 -18 -18 -17 -17 -17
-17 -17 -17 -17 -17 -18 -18 -18 -18 -18 -18 -18 -18 -18 -19 -19 -19 -19 -19 -19 -19 -19 -18 -18 -18 -18 -18 -18 -18 -18 -18 -18 -18 -18 -18 -18 -17 -18
-17 -17 -17 -17 -18 -18 -18 -18 -18 -18 -18 -18 -18 -18 -18 -19 -19 -19 -19 -19 -19 -19 -18 -19 -18 -18 -18 -18 -18 -18 -18 -18 -18 -18 -18 -17 -17 -17

GFSNE_700_temp_030.txt.gz
Temp
-11 -12 -12 -13 -13 -13 -14 -14 -15 -15 -14 -14 -14 -15 -16 -16 -16 -15 -15 -15 -14 -14 -14 -14 -14 -13 -13 -13 -13 -13 -13 -13 -12 -11 -10 -8 -7 -6
-12 -13 -13 -13 -14 -14 -14 -14 -15 -16 -15 -15 -15 -16 -16 -16 -15 -15 -15 -15 -15 -15 -15 -14 -14 -14 -13 -13 -13 -13 -13 -13 -13 -13 -12 -11 -9 -7
-12 -13 -14 -13 -14 -14 -14 -15 -15 -16 -16 -15 -16 -16 -16 -16 -16 -15 -15 -15 -15 -15 -15 -15 -15 -14 -14 -14 -14 -14 -14 -14 -13 -13 -13 -12 -11 -9
-13 -14 -13 -14 -14 -15 -15 -15 -15 -16 -16 -16 -15 -16 -16 -16 -16 -16 -16 -16 -16 -16 -16 -16 -17 -16 -16 -15 -16 -15 -15 -14 -14 -13 -13 -12 -12 -10
-13 -14 -14 -14 -15 -15 -15 -15 -15 -16 -16 -16 -16 -16 -16 -16 -16 -16 -17 -17 -18 -18 -18 -18 -18 -18 -17 -17 -16 -16 -16 -15 -15 -14 -13 -13 -12 -11
-14 -14 -14 -15 -15 -15 -15 -16 -16 -16 -16 -16 -16 -16 -17 -17 -17 -17 -18 -18 -19 -19 -19 -19 -19 -18 -17 -17 -17 -17 -17 -16 -15 -14 -14 -13 -13 -12
-14 -15 -15 -15 -15 -15 -16 -16 -16 -16 -16 -16 -17 -17 -17 -17 -17 -18 -19 -19 -19 -19 -19 -19 -19 -18 -18 -17 -17 -17 -17 -16 -15 -14 -14 -13 -13 -12
-14 -15 -15 -16 -16 -15 -16 -16 -17 -17 -17 -17 -17 -17 -17 -17 -18 -19 -19 -20 -19 -19 -20 -19 -19 -18 -18 -17 -17 -17 -16 -16 -16 -15 -14 -13 -13 -12
-15 -15 -15 -16 -16 -16 -17 -17 -17 -17 -17 -17 -17 -17 -18 -18 -19 -19 -19 -19 -20 -19 -20 -19 -19 -18 -18 -18 -17 -17 -17 -17 -17 -15 -14 -13 -13 -12
-15 -15 -16 -16 -16 -17 -17 -17 -17 -17 -18 -18 -18 -18 -18 -19 -19 -19 -20 -20 -20 -20 -20 -19 -19 -19 -18 -18 -18 -18 -18 -17 -17 -16 -14 -13 -13 -12
-16 -16 -16 -16 -16 -17 -17 -17 -17 -17 -18 -18 -18 -18 -18 -19 -19 -20 -20 -20 -20 -20 -20 -19 -19 -19 -18 -18 -18 -17 -17 -17 -17 -16 -15 -14 -13 -12
-16 -16 -16 -16 -16 -17 -17 -17 -17 -17 -18 -18 -18 -18 -18 -19 -19 -20 -20 -20 -20 -20 -20 -20 -19 -19 -19 -18 -18 -18 -17 -17 -16 -16 -15 -14 -13 -13
-16 -16 -16 -16 -16 -17 -17 -17 -17 -18 -18 -18 -18 -18 -18 -19 -19 -20 -20 -20 -20 -20 -20 -20 -19 -19 -19 -18 -18 -18 -18 -17 -17 -16 -16 -15 -14 -14
-16 -16 -16 -16 -17 -17 -17 -17 -17 -18 -18 -18 -18 -18 -18 -19 -19 -19 -19 -19 -19 -19 -19 -19 -19 -19 -19 -19 -19 -18 -18 -18 -17 -16 -15 -15 -14 -14
-16 -16 -16 -17 -17 -17 -17 -17 -17 -17 -18 -18 -18 -18 -18 -19 -19 -19 -19 -19 -19 -19 -19 -19 -19 -19 -19 -19 -19 -18 -18 -18 -17 -15 -15 -14 -14 -14
-17 -17 -17 -17 -17 -17 -17 -17 -17 -17 -17 -18 -18 -18 -19 -19 -19 -19 -19 -19 -18 -19 -18 -18 -18 -19 -19 -19 -19 -18 -18 -18 -17 -16 -16 -15 -14 -14
-16 -16 -17 -17 -17 -17 -17 -17 -17 -17 -17 -18 -18 -18 -19 -19 -19 -19 -19 -19 -19 -18 -19 -19 -18 -18 -19 -19 -19 -19 -18 -18 -17 -17 -16 -16 -15 -15
-16 -16 -17 -17 -17 -17 -17 -17 -17 -17 -17 -17 -18 -18 -19 -19 -19 -19 -19 -19 -19 -19 -19 -19 -18 -19 -18 -18 -19 -19 -18 -18 -18 -18 -17 -16 -15 -15
-16 -17 -17 -17 -17 -17 -17 -17 -17 -17 -17 -17 -17 -18 -18 -19 -19 -19 -19 -19 -19 -19 -19 -19 -18 -18 -18 -18 -18 -18 -19 -18 -18 -18 -17 -17 -17 -16
-16 -16 -17 -17 -17 -17 -17 -18 -18 -18 -18 -18 -17 -18 -18 -19 -19 -19 -19 -19 -19 -19 -19 -19 -18 -19 -18 -18 -18 -18 -18 -18 -18 -18 -18 -17 -17 -16
-16 -16 -17 -17 -17 -17 -18 -18 -18 -18 -18 -18 -18 -18 -18 -18 -19 -19 -19 -19 -19 -19 -19 -18 -18 -19 -18 -18 -18 -18 -18 -18 -18 -18 -18 -18 -17 -17
-16 -16 -17 -17 -17 -17 -17 -18 -18 -18 -18 -18 -18 -18 -18 -18 -18 -19 -19 -19 -19 -19 -19 -19 -18 -18 -19 -19 -18 -18 -18 -18 -18 -18 -18 -18 -18 -18
-17 -17 -17 -17 -17 -17 -17 -18 -18 -18 -18 -18 -18 -18 -18 -18 -18 -19 -19 -19 -19 -19 -19 -19 -19 -18 -19 -18 -19 -18 -18 -18 -18 -18 -18 -18 -18 -18

GFSNE_700_temp_033.txt.gz
Temp
-9 -10 -10 -11 -12 -13 -13 -14 -14 -14 -13 -13 -14 -14 -14 -15 -15 -15 -15 -15 -15 -15 -15 -14 -14 -14 -14 -14 -14 -13 -13 -13 -12 -12 -11 -10 -9 -9
-11 -11 -11 -12 -13 -14 -13 -14 -14 -15 -15 -15 -14 -14 -15 -15 -15 -16 -16 -15 -15 -15 -15 -14 -14 -14 -14 -14 -14 -13 -13 -13 -13 -13 -11 -11 -10 -10
-11 -12 -12 -13 -14 -14 -14 -14 -14 -15 -15 -15 -15 -15 -15 -16 -16 -16 -16 -16 -16 -15 -15 -15 -15 -15 -15 -15 -14 -14 -14 -14 -14 -13 -13 -12 -11 -10
-12 -13 -13 -14 -14 -14 -14 -14 -15 -15 -15 -15 -15 -15 -16 -16 -16 -16 -16 -16 -16 -15 -16 -16 -17 -17 -18 -17 -16 -16 -16 -16 -15 -14 -14 -13 -12 -11
-13 -13 -14 -14 -14 -14 -14 -15 -15 -15 -15 -16 -15 -16 -16 -16 -16 -16 -16 -16 -16 -16 -17 -17 -18 -18 -18 -18 -18 -18 -17 -17 -16 -15 -14 -13 -13 -13
-13 -14 -14 -14 -14 -14 -15 -15 -15 -15 -16 -16 -16 -16 -16 -17 -17 -16 -16 -17 -17 -17 -18 -18 -19 -18 -19 -18 -18 -18 -17 -17 -17 -17 -15 -14 -13 -13
-14 -14 -14 -15 -15 -15 -15 -15 -15 -16 -16 -16 -16 -16 -17 -17 -17 -17 -17 -17 -17 -18 -18 -18 -19 -19 -19 -19 -18 -18 -18 -17 -17 -16 -16 -15 -14 -13
-14 -14 -15 -15 -15 -15 -15 -15 -16 -16 -16 -17 -17 -17 -17 -17 -17 -17 -18 -18 -17 -19 -19 -18 -19 -19 -19 -19 -18 -17 -17 -17 -17 -17 -16 -15 -14 -14
-15 -15 -15 -15 -15 -16 -16 -16 -17 -17 -17 -18 -17 -17 -17 -18 -17 -18 -18 -19 -19 -20 -20 -18 -19 -19 -19 -19 -18 -18 -18 -17 -17 -17 -17 -16 -15 -14
-15 -15 -15 -15 -16 -16 -16 -16 -17 -17 -17 -18 -18 -18 -18 -18 -18 -18 -19 -18 -19 -20 -20 -19 -19 -19 -19 -19 -19 -18 -18 -18 -17 -17 -17 -16 -15 -14
-15 -15 -16 -16 -16 -16 -16 -16 -17 -17 -17 -18 -18 -18 -18 -18 -19 -19 -19 -19 -19 -19 -20 -20 -19 -19 -19 -19 -19 -18 -18 -18 -17 -17 -16 -16 -15 -14
-15 -16 -16 -16 -16 -16 -16 -16 -16 -17 -17 -18 -18 -18 -18 -18 -19 -19 -19 -19 -19 -19 -19 -19 -19 -19 -19 -19 -19 -18 -18 -17 -17 -17 -17 -16 -16 -14
-15 -16 -16 -16 -16 -16 -16 -16 -16 -17 -17 -17 -18 -18 -18 -18 -19 -19 -19 -19 -19 -19 -19 -19 -19 -19 -20 -18 -19 -18 -18 -18 -18 -17 -17 -16 -16 -15
-16 -16 -16 -16 -16 -16 -17 -17 -17 -17 -17 -17 -18 -18 -18 -18 -19 -19 -19 -19 -19 -19 -19 -19 -19 -19 -19 -19 -19 -18 -18 -18 -18 -17 -16 -16 -15 -15
-16 -16 -16 -17 -17 -17 -17 -17 -17 -17 -17 -17 -17 -18 -18 -18 -18 -18 -19 -19 -19 -19 -19 -19 -19 -19 -19 -19 -19 -18 -18 -18 -18 -17 -16 -16 -15 -14
-16 -16 -17 -17 -17 -17 -17 -17 -17 -17 -17 -17 -17 -18 -18 -18 -19 -18 -18 -19 -19 -19 -19 -19 -19 -19 -19 -19 -19 -19 -18 -18 -17 -17 -16 -15 -15 -15
-16 -16 -17 -17 -17 -17 -17 -17 -17 -17 -17 -17 -17 -17 -18 -18 -19 -19 -19 -19 -19 -18 -19 -19 -19 -19 -19 -19 -19 -19 -19 -18 -18 -17 -16 -16 -15 -15
-16 -16 -16 -17 -17 -17 -17 -17 -17 -17 -17 -17 -17 -17 -17 -18 -18 -19 -19 -19 -19 -19 -19 -18 -18 -19 -19 -18 -19 -19 -19 -18 -18 -18 -17 -16 -16 -15
-16 -16 -16 -17 -17 -17 -17 -17 -17 -18 -18 -18 -17 -17 -17 -18 -18 -19 -19 -19 -19 -19 -19 -19 -19 -19 -19 -19 -18 -19 -19 -18 -18 -18 -17 -17 -16 -16
-16 -16 -16 -16 -17 -17 -17 -17 -17 -18 -18 -18 -18 -18 -17 -17 -18 -18 -19 -19 -19 -19 -19 -19 -19 -19 -19 -19 -18 -18 -18 -18 -18 -18 -18 -17 -17 -16
-17 -16 -16 -16 -16 -17 -17 -17 -18 -18 -18 -18 -18 -18 -18 -17 -18 -18 -19 -19 -19 -19 -19 -19 -19 -19 -19 -19 -19 -18 -18 -18 -18 -18 -18 -18 -18 -17
-17 -17 -17 -17 -17 -17 -17 -17 -17 -18 -18 -18 -18 -18 -18 -18 -18 -18 -18 -19 -19 -19 -19 -19 -19 -19 -19 -19 -19 -19 -18 -18 -18 -18 -18 -18 -18 -18
-17 -17 -17 -17 -17 -17 -17 -17 -17 -18 -18 -18 -18 -18 -18 -18 -18 -18 -18 -18 -19 -19 -19 -19 -19 -19 -19 -19 -19 -19 -19 -18 -18 -18 -18 -18 -18 -18

GFSNE_700_temp_036.txt.gz
Temp
-8 -8 -9 -9 -10 -11 -11 -12 -13 -14 -13 -14 -13 -13 -14 -14 -14 -14 -14 -14 -14 -14 -15 -15 -15 -15 -14 -14 -14 -14 -13 -13 -12 -12 -11 -11 -11 -11
-9 -10 -10 -11 -11 -12 -12 -14 -14 -14 -14 -13 -13 -14 -14 -14 -14 -15 -15 -15 -15 -15 -15 -15 -15 -15 -15 -15 -14 -14 -14 -13 -13 -12 -12 -11 -11 -11
-10 -11 -12 -12 -13 -13 -14 -14 -14 -14 -14 -14 -14 -15 -15 -15 -15 -15 -15 -15 -15 -15 -16 -15 -15 -15 -15 -15 -15 -15 -15 -14 -13 -13 -12 -12 -12 -11
-12 -12 -13 -13 -13 -14 -14 -14 -15 -15 -15 -15 -15 -15 -15 -15 -16 -16 -16 -16 -16 -16 -16 -16 -16 -16 -16 -16 -16 -16 -16 -15 -14 -14 -13 -12 -12 -12
-12 -13 -13 -14 -14 -14 -14 -15 -15 -16 -16 -15 -15 -15 -15 -16 -16 -16 -16 -16 -16 -16 -16 -16 -17 -17 -17 -17 -18 -18 -18 -17 -16 -15 -14 -13 -13 -12
-13 -13 -14 -14 -14 -14 -15 -15 -15 -15 -16 -16 -16 -16 -16 -16 -17 -17 -17 -17 -16 -16 -17 -17 -17 -17 -18 -18 -18 -18 -18 -18 -17 -17 -16 -15 -14 -13
-14 -14 -14 -14 -15 -15 -15 -15 -16 -16 -16 -16 -16 -16 -16 -17 -17 -17 -17 -17 -17 -17 -17 -17 -18 -18 -18 -18 -19 -19 -18 -18 -18 -17 -17 -17 -16 -14
-14 -15 -15 -15 -15 -15 -16 -16 -16 -16 -16 -16 -16 -16 -17 -17 -17 -17 -17 -17 -16 -18 -18 -18 -19 -18 -18 -18 -18 -18 -18 -18 -18 -18 -17 -17 -17 -15
-14 -15 -15 -15 -15 -16 -16 -16 -16 -16 -16 -16 -17 -17 -17 -17 -17 -17 -18 -18 -18 -19 -19 -18 -19 -19 -19 -19 -19 -18 -18 -18 -18 -17 -17 -17 -17 -16
-15 -15 -15 -15 -15 -16 -16 -16 -16 -17 -17 -17 -17 -17 -18 -18 -18 -18 -18 -18 -18 -19 -20 -19 -19 -19 -19 -19 -19 -19 -18 -18 -18 -17 -17 -17 -17 -17
-15 -15 -15 -15 -16 -16 -16 -16 -16 -17 -17 -17 -17 -18 -18 -18 -18 -18 -18 -18 -18 -19 -20 -19 -19 -19 -19 -19 -19 -19 -19 -18 -17 -17 -17 -16 -16 -16
-15 -15 -15 -15 -16 -16 -16 -16 -16 -16 -17 -17 -17 -18 -18 -18 -19 -18 -18 -18 -19 -19 -20 -18 -18 -19 -18 -18 -19 -19 -19 -19 -18 -17 -17 -17 -16 -16
-15 -16 -16 -16 -16 -16 -16 -16 -16 -16 -17 -17 -17 -17 -18 -18 -19 -19 -19 -19 -18 -19 -19 -19 -19 -18 -19 -19 -19 -19 -19 -18 -18 -18 -17 -17 -16 -16
-16 -16 -16 -16 -16 -17 -17 -17 -17 -17 -17 -17 -17 -17 -17 -18 -18 -18 -19 -19 -19 -19 -19 -19 -19 -19 -19 -19 -19 -18 -18 -18 -18 -18 -17 -17 -16 -16
-16 -16 -16 -16 -16 -17 -17 -17 -17 -17 -17 -17 -17 -17 -17 -17 -18 -18 -19 -19 -19 -19 -19 -19 -19 -19 -19 -19 -19 -19 -18 -18 -18 -17 -17 -16 -16 -15
-16 -16 -16 -17 -17 -17 -17 -17 -17 -17 -17 -17 -17 -17 -17 -17 -18 -18 -18 -19 -19 -19 -19 -19 -19 -19 -19 -19 -19 -19 -18 -18 -18 -17 -17 -16 -15 -15
-17 -16 -16 -17 -17 -17 -17 -17 -17 -17 -17 -17 -17 -17 -17 -17 -18 -18 -19 -19 -19 -19 -19 -19 -19 -19 -19 -19 -19 -19 -19 -18 -17 -17 -17 -16 -15 -15
-17 -16 -17 -17 -17 -17 -17 -17 -17 -17 -18 -18 -18 -18 -17 -17 -18 -18 -18 -19 -19 -19 -19 -19 -19 -19 -19 -18 -18 -19 -19 -18 -18 -18 -17 -16 -16 -15
-16 -17 -17 -17 -16 -16 -17 -17 -17 -18 -18 -18 -18 -18 -18 -18 -18 -18 -18 -19 -19 -19 -19 -19 -19 -19 -19 -18 -18 -19 -19 -19 -18 -18 -18 -17 -16 -16
-17 -17 -17 -17 -16 -16 -17 -17 -17 -18 -18 -18 -18 -18 -18 -18 -18 -18 -18 -18 -19 -19 -19 -19 -19 -19 -19 -19 -18 -18 -18 -18 -18 -18 -18 -17 -17 -17
-17 -17 -17 -17 -17 -17 -17 -17 -17 -18 -18 -18 -18 -18 -18 -18 -18 -18 -18 -18 -19 -19 -19 -19 -19 -19 -19 -18 -18 -18 -18 -18 -18 -18 -18 -18 -17 -17
-17 -17 -17 -17 -18 -17 -17 -17 -17 -18 -18 -18 -18 -18 -18 -18 -18 -18 -18 -18 -18 -19 -19 -19 -19 -19 -19 -19 -19 -18 -18 -18 -18 -18 -18 -18 -18 -17
-18 -17 -18 -17 -17 -17 -17 -17 -17 -18 -18 -18 -18 -18 -18 -19 -18 -18 -18 -18 -18 -19 -19 -19 -19 -19 -19 -19 -19 -19 -19 -19 -19 -19 -18 -18 -18 -18

GFSNE_700_temp_039.txt.gz
Temp
-9 -9 -9 -9 -9 -10 -10 -11 -12 -12 -12 -13 -14 -14 -14 -14 -14 -14 -14 -14 -14 -14 -14 -14 -14 -15 -15 -15 -14 -14 -14 -14 -13 -13 -12 -12 -12 -11
-10 -10 -10 -10 -11 -11 -12 -12 -13 -13 -14 -14 -14 -14 -14 -14 -14 -14 -14 -14 -15 -15 -15 -15 -15 -15 -15 -15 -15 -15 -14 -14 -13 -13 -13 -12 -12 -12
-11 -11 -11 -11 -12 -12 -13 -13 -14 -14 -14 -14 -14 -14 -14 -15 -15 -15 -15 -15 -15 -16 -15 -15 -16 -16 -16 -16 -15 -15 -15 -14 -14 -13 -13 -12 -12 -12
-12 -12 -12 -12 -13 -13 -13 -14 -14 -15 -15 -14 -14 -15 -15 -15 -15 -15 -16 -16 -16 -16 -16 -16 -16 -16 -16 -15 -15 -15 -15 -15 -15 -14 -13 -13 -13 -12
-12 -12 -12 -13 -13 -14 -14 -15 -15 -15 -15 -15 -15 -15 -15 -16 -16 -16 -16 -16 -16 -16 -17 -16 -16 -16 -16 -16 -16 -16 -17 -16 -16 -16 -15 -14 -13 -13
-12 -13 -13 -13 -14 -14 -15 -15 -15 -15 -15 -16 -16 -16 -16 -16 -16 -16 -16 -17 -16 -17 -17 -16 -17 -17 -17 -17 -17 -17 -18 -18 -17 -17 -16 -16 -15 -14
-12 -12 -13 -14 -14 -15 -15 -15 -15 -15 -16 -16 -16 -16 -16 -16 -16 -17 -17 -17 -17 -17 -17 -17 -18 -18 -18 -18 -18 -17 -18 -18 -18 -17 -17 -17 -16 -16
-12 -13 -14 -14 -14 -15 -15 -15 -15 -16 -16 -16 -16 -16 -16 -16 -17 -17 -17 -17 -16 -18 -17 -17 -19 -19 -19 -19 -18 -18 -18 -18 -18 -18 -18 -17 -17 -17
-12 -13 -14 -14 -15 -15 -15 -16 -16 -16 -16 -16 -16 -16 -16 -17 -17 -17 -17 -18 -18 -18 -18 -17 -19 -19 -19 -19 -19 -18 -18 -18 -18 -18 -18 -18 -17 -17
-13 -14 -14 -14 -15 -15 -15 -16 -16 -17 -17 -17 -16 -16 -16 -17 -17 -17 -17 -17 -18 -19 -19 -18 -19 -19 -19 -19 -19 -19 -19 -19 -19 -18 -18 -18 -17 -17
-13 -14 -14 -15 -15 -15 -16 -16 -16 -17 -17 -17 -17 -16 -16 -17 -17 -17 -18 -18 -18 -19 -20 -19 -19 -19 -18 -19 -19 -19 -19 -19 -19 -18 -18 -17 -17 -17
-13 -14 -15 -15 -15 -16 -16 -16 -17 -17 -17 -17 -17 -17 -17 -17 -17 -17 -18 -18 -18 -18 -19 -19 -19 -19 -18 -18 -19 -19 -19 -19 -19 -19 -18 -18 -17 -17
-14 -14 -15 -15 -16 -16 -16 -16 -17 -17 -17 -17 -17 -17 -17 -17 -17 -18 -18 -18 -18 -18 -19 -19 -19 -19 -19 -18 -18 -19 -19 -19 -19 -18 -18 -18 -17 -17
-14 -15 -15 -16 -16 -16 -16 -17 -17 -17 -17 -17 -17 -17 -17 -17 -17 -17 -18 -18 -19 -19 -19 -19 -19 -19 -19 -19 -19 -19 -19 -19 -18 -18 -18 -18 -17 -17
-15 -15 -16 -16 -16 -17 -17 -17 -17 -17 -17 -17 -17 -18 -17 -17 -17 -17 -18 -18 -19 -19 -19 -19 -19 -19 -19 -19 -19 -19 -19 -19 -18 -18 -17 -17 -17 -16
-15 -16 -16 -17 -17 -17 -17 -17 -17 -17 -17 -18 -18 -18 -18 -18 -17 -17 -17 -18 -19 -19 -19 -19 -19 -19 -19 -19 -19 -19 -19 -18 -18 -18 -17 -17 -16 -16
-16 -16 -17 -17 -17 -17 -17 -17 -17 -17 -17 -18 -18 -18 -18 -18 -18 -17 -17 -18 -18 -18 -19 -19 -19 -19 -19 -19 -19 -19 -19 -19 -18 -18 -17 -16 -16 -16
-17 -17 -17 -17 -17 -17 -17 -17 -17 -17 -18 -18 -18 -18 -18 -18 -18 -18 -18 -18 -18 -19 -19 -19 -19 -19 -19 -19 -19 -19 -19 -19 -18 -18 -17 -16 -16 -15
-17 -17 -17 -17 -17 -18 -17 -17 -17 -17 -17 -18 -18 -18 -18 -18 -18 -18 -18 -18 -18 -19 -19 -19 -19 -19 -19 -19 -18 -19 -19 -19 -18 -18 -18 -17 -17 -16
-17 -17 -17 -17 -18 -17 -17 -17 -17 -17 -17 -18 -18 -18 -18 -18 -18 -18 -18 -18 -18 -18 -19 -19 -19 -19 -19 -19 -19 -18 -19 -19 -19 -18 -18 -17 -17 -17
-17 -18 -18 -18 -18 -17 -17 -17 -17 -17 -17 -18 -18 -18 -18 -18 -18 -18 -18 -18 -18 -18 -19 -19 -19 -19 -19 -19 -19 -18 -18 -19 -18 -18 -18 -18 -17 -17
-17 -18 -18 -18 -18 -18 -17 -17 -17 -18 -17 -17 -18 -18 -18 -18 -18 -18 -19 -19 -18 -18 -18 -19 -19 -19 -19 -19 -19 -19 -19 -19 -19 -19 -18 -18 -18 -17
-18 -18 -18 -18 -18 -18 -18 -18 -18 -17 -17 -18 -18 -18 -18 -18 -18 -19 -19 -19 -18 -18 -18 -19 -19 -19 -19 -19 -19 -19 -19 -19 -19 -19 -19 -18 -18 -18

GFSNE_700_temp_045.txt.gz
Temp
-5 -6 -6 -6 -7 -7 -9 -10 -10 -9 -10 -11 -12 -12 -12 -13 -14 -14 -14 -14 -14 -14 -14 -14 -14 -14 -14 -14 -14 -14 -14 -14 -14 -14 -13 -13 -13 -13
-6 -6 -6 -7 -8 -9 -9 -10 -10 -11 -11 -12 -13 -13 -14 -14 -14 -14 -14 -14 -14 -14 -14 -14 -14 -15 -15 -15 -15 -15 -15 -15 -15 -15 -14 -14 -15 -14
-6 -6 -7 -8 -9 -9 -10 -11 -11 -12 -12 -13 -13 -14 -14 -14 -15 -15 -15 -15 -15 -14 -14 -15 -15 -15 -15 -15 -15 -15 -15 -15 -15 -15 -15 -15 -15 -14
-6 -7 -9 -9 -10 -10 -11 -11 -12 -13 -13 -13 -14 -14 -15 -15 -15 -15 -15 -15 -15 -15 -15 -15 -16 -15 -16 -16 -16 -16 -16 -15 -15 -15 -15 -15 -14 -14
-8 -9 -10 -10 -10 -11 -11 -12 -12 -13 -13 -14 -14 -15 -15 -15 -15 -15 -15 -15 -15 -16 -16 -16 -16 -16 -16 -16 -16 -16 -16 -16 -16 -16 -16 -15 -15 -15
-9 -10 -10 -10 -10 -11 -12 -12 -13 -13 -14 -14 -15 -15 -15 -15 -15 -15 -15 -16 -15 -16 -16 -16 -17 -17 -17 -17 -16 -17 -17 -17 -17 -17 -17 -16 -16 -16
-9 -10 -10 -11 -11 -11 -12 -12 -13 -14 -14 -15 -15 -15 -15 -16 -16 -16 -16 -16 -16 -16 -16 -16 -17 -17 -17 -17 -17 -17 -18 -18 -18 -17 -17 -17 -17 -17
-10 -10 -11 -11 -11 -12 -12 -13 -14 -14 -15 -15 -15 -15 -16 -16 -16 -16 -16 -16 -16 -16 -16 -16 -18 -17 -18 -18 -18 -18 -18 -18 -18 -18 -18 -17 -17 -17
-11 -11 -11 -12 -12 -12 -13 -13 -14 -15 -15 -15 -15 -16 -16 -16 -16 -16 -16 -16 -16 -16 -16 -16 -17 -17 -18 -18 -18 -18 -18 -18 -18 -18 -18 -18 -18 -18
-11 -12 -12 -12 -13 -13 -13 -14 -15 -15 -15 -16 -16 -16 -16 -16 -17 -17 -17 -16 -16 -16 -17 -16 -17 -17 -18 -19 -19 -19 -18 -18 -18 -18 -18 -18 -18 -18
-12 -12 -12 -13 -13 -14 -14 -14 -15 -15 -16 -16 -16 -16 -16 -17 -17 -17 -17 -17 -16 -16 -17 -16 -17 -17 -18 -18 -19 -19 -19 -18 -18 -18 -18 -18 -18 -18
-12 -12 -13 -13 -14 -14 -15 -15 -15 -16 -16 -16 -17 -17 -17 -17 -17 -17 -17 -17 -17 -16 -17 -16 -17 -18 -17 -18 -18 -19 -19 -18 -18 -18 -18 -18 -18 -18
-12 -13 -14 -14 -15 -15 -15 -15 -16 -17 -17 -17 -17 -17 -17 -17 -17 -17 -18 -18 -17 -17 -17 -17 -18 -18 -18 -17 -18 -18 -19 -18 -18 -18 -18 -18 -18 -18
-13 -13 -14 -15 -16 -16 -16 -16 -16 -17 -17 -17 -17 -17 -18 -18 -18 -18 -18 -18 -18 -18 -17 -17 -18 -18 -18 -18 -18 -18 -19 -18 -18 -18 -18 -17 -18 -17
-14 -15 -16 -16 -16 -16 -16 -16 -17 -18 -18 -18 -18 -18 -18 -17 -18 -18 -18 -18 -18 -18 -18 -17 -18 -18 -19 -19 -18 -18 -18 -18 -18 -18 -17 -17 -17 -17
-15 -16 -16 -16 -16 -16 -17 -16 -17 -18 -18 -18 -18 -18 -18 -18 -18 -18 -18 -18 -18 -18 -18 -18 -18 -18 -18 -19 -18 -18 -19 -19 -18 -18 -17 -18 -17 -16
-15 -16 -17 -16 -17 -17 -17 -17 -17 -18 -17 -18 -18 -18 -18 -18 -18 -18 -18 -18 -18 -18 -18 -18 -18 -19 -18 -19 -19 -19 -19 -19 -19 -18 -18 -18 -17 -16
-16 -16 -16 -17 -17 -17 -17 -17 -17 -17 -18 -18 -18 -18 -18 -18 -18 -18 -18 -18 -18 -18 -18 -18 -18 -19 -19 -19 -19 -19 -19 -19 -19 -18 -18 -18 -17 -17
-16 -16 -17 -17 -17 -17 -17 -17 -17 -18 -18 -18 -18 -18 -18 -18 -18 -18 -18 -18 -19 -18 -18 -18 -18 -19 -19 -19 -19 -19 -19 -19 -19 -18 -18 -17 -17 -17
-17 -17 -18 -18 -18 -18 -17 -17 -18 -18 -18 -18 -18 -18 -18 -18 -18 -18 -18 -18 -19 -19 -18 -18 -18 -19 -19 -19 -19 -19 -19 -19 -19 -19 -18 -18 -17 -17
-18 -18 -18 -18 -17 -18 -18 -17 -17 -18 -18 -18 -18 -18 -18 -18 -18 -18 -18 -18 -19 -19 -19 -18 -18 -19 -19 -19 -19 -19 -19 -19 -19 -19 -18 -18 -18 -17
-19 -19 -19 -18 -18 -18 -18 -18 -18 -18 -18 -18 -18 -18 -18 -18 -18 -18 -18 -18 -19 -19 -19 -18 -18 -19 -19 -19 -19 -19 -19 -19 -19 -19 -19 -18 -18 -18
-20 -20 -19 -19 -18 -19 -19 -19 -18 -18 -18 -18 -18 -18 -18 -18 -18 -18 -18 -18 -19 -19 -19 -19 -18 -18 -19 -19 -19 -19 -19 -19 -19 -19 -19 -19 -19 -18

GFSNE_700_temp_048.txt.gz
Temp
-4 -4 -5 -6 -6 -6 -7 -7 -7 -7 -8 -9 -10 -10 -10 -11 -12 -12 -13 -13 -13 -14 -14 -14 -14 -14 -14 -14 -14 -14 -14 -14 -14 -14 -14 -14 -13 -13
-4 -5 -6 -6 -7 -7 -7 -7 -8 -9 -9 -10 -11 -12 -12 -12 -13 -13 -13 -14 -14 -14 -14 -14 -14 -14 -14 -14 -15 -15 -15 -15 -15 -15 -15 -14 -14 -14
-6 -6 -7 -8 -8 -8 -8 -8 -9 -10 -10 -11 -13 -15 -13 -12 -14 -14 -14 -14 -14 -14 -14 -14 -14 -14 -14 -15 -15 -16 -16 -16 -15 -15 -15 -15 -15 -15
-6 -7 -8 -8 -8 -9 -10 -9 -10 -11 -12 -11 -13 -14 -15 -14 -14 -14 -14 -14 -15 -15 -15 -14 -14 -14 -14 -15 -16 -16 -16 -16 -16 -16 -16 -15 -15 -15
-7 -8 -9 -9 -9 -10 -10 -10 -11 -14 -13 -13 -14 -15 -15 -15 -14 -14 -15 -15 -15 -15 -15 -15 -14 -15 -15 -16 -16 -16 -17 -17 -17 -16 -16 -16 -15 -15
-8 -9 -9 -9 -10 -10 -11 -11 -12 -12 -14 -16 -16 -16 -17 -17 -15 -15 -15 -15 -15 -15 -15 -15 -15 -15 -15 -16 -17 -17 -17 -17 -17 -17 -17 -16 -16 -16
-8 -9 -10 -10 -10 -11 -11 -12 -14 -13 -13 -16 -16 -17 -17 -17 -18 -16 -15 -16 -16 -16 -16 -15 -15 -16 -16 -16 -17 -17 -17 -17 -17 -17 -17 -17 -17 -17
-9 -10 -10 -10 -11 -11 -12 -12 -13 -13 -14 -14 -14 -15 -16 -17 -16 -16 -16 -16 -16 -16 -16 -16 -16 -16 -16 -17 -17 -18 -18 -18 -18 -17 -17 -17 -17 -17
-10 -10 -11 -11 -11 -12 -12 -13 -13 -13 -14 -14 -15 -16 -16 -16 -16 -16 -16 -16 -16 -16 -16 -16 -16 -16 -16 -17 -17 -18 -18 -18 -18 -18 -18 -18 -18 -18
-10 -11 -11 -12 -12 -12 -13 -13 -13 -14 -14 -14 -15 -16 -16 -16 -16 -17 -17 -17 -17 -17 -17 -16 -16 -16 -16 -17 -18 -18 -18 -18 -18 -18 -18 -18 -18 -18
-11 -12 -12 -12 -13 -13 -14 -14 -14 -15 -15 -15 -16 -16 -16 -17 -17 -17 -17 -17 -17 -17 -17 -17 -16 -16 -16 -17 -18 -18 -18 -19 -19 -18 -18 -18 -18 -18
-11 -12 -12 -12 -13 -14 -14 -15 -15 -15 -16 -16 -16 -17 -17 -17 -17 -17 -17 -17 -17 -17 -17 -17 -17 -17 -17 -17 -18 -18 -18 -18 -19 -18 -18 -18 -18 -18
-11 -11 -12 -13 -13 -15 -15 -16 -16 -16 -16 -16 -17 -17 -17 -17 -17 -17 -17 -18 -17 -17 -18 -17 -17 -17 -17 -18 -18 -18 -18 -18 -18 -18 -18 -18 -18 -18
-12 -12 -13 -14 -14 -15 -16 -16 -16 -16 -16 -17 -17 -17 -17 -18 -18 -18 -18 -18 -18 -18 -18 -18 -17 -17 -17 -18 -18 -18 -18 -18 -18 -18 -18 -18 -17 -17
-13 -13 -13 -13 -14 -15 -16 -16 -15 -16 -16 -17 -17 -18 -17 -17 -18 -18 -18 -18 -18 -18 -18 -18 -18 -17 -18 -18 -18 -18 -18 -18 -18 -19 -18 -17 -17 -17
-13 -13 -14 -15 -15 -16 -16 -17 -17 -17 -17 -17 -18 -17 -17 -18 -18 -18 -18 -18 -18 -18 -18 -18 -18 -18 -18 -18 -18 -18 -18 -18 -18 -18 -17 -17 -17 -17
-15 -15 -15 -15 -16 -16 -17 -17 -17 -17 -17 -17 -18 -18 -17 -18 -18 -18 -18 -18 -18 -18 -18 -18 -18 -18 -18 -18 -19 -19 -18 -18 -19 -18 -17 -17 -17 -17
-16 -16 -16 -16 -16 -17 -18 -17 -17 -17 -17 -17 -17 -18 -18 -18 -18 -18 -18 -18 -18 -18 -18 -18 -18 -18 -18 -18 -19 -19 -19 -19 -19 -19 -18 -17 -17 -17
-17 -17 -17 -18 -18 -18 -18 -18 -18 -17 -18 -17 -17 -18 -18 -18 -18 -18 -18 -18 -18 -18 -18 -18 -18 -18 -18 -19 -19 -19 -19 -19 -19 -19 -18 -17 -17 -17
-18 -18 -18 -18 -19 -18 -18 -18 -18 -18 -17 -17 -18 -18 -18 -18 -18 -18 -18 -18 -18 -18 -18 -18 -18 -18 -18 -19 -19 -19 -19 -19 -19 -19 -18 -18 -17 -17
-19 -19 -19 -19 -19 -19 -18 -18 -18 -18 -18 -18 -18 -18 -19 -18 -18 -18 -18 -18 -18 -18 -18 -19 -18 -18 -18 -18 -19 -19 -19 -19 -19 -19 -18 -18 -18 -18
-20 -20 -20 -20 -19 -19 -18 -18 -18 -18 -18 -18 -18 -18 -18 -18 -18 -18 -18 -18 -18 -18 -18 -19 -19 -18 -18 -18 -19 -19 -19 -19 -19 -19 -19 -18 -18 -18
-21 -21 -21 -21 -20 -19 -19 -19 -18 -19 -19 -18 -18 -18 -18 -18 -18 -18 -18 -18 -18 -19 -19 -19 -19 -19 -18 -18 -19 -19 -19 -19 -19 -19 -19 -19 -19 -18

GFSNE_700_temp_051.txt.gz
Temp
-2 -2 -3 -4 -5 -6 -6 -7 -7 -7 -7 -8 -10 -10 -10 -11 -10 -9 -10 -11 -11 -12 -12 -13 -14 -14 -14 -14 -14 -14 -14 -14 -14 -14 -14 -14 -14 -14
-3 -2 -4 -4 -5 -7 -7 -8 -9 -8 -8 -11 -11 -11 -11 -12 -12 -11 -12 -12 -12 -13 -13 -14 -14 -14 -14 -14 -14 -14 -14 -14 -15 -15 -15 -15 -15 -15
-3 -4 -4 -5 -6 -7 -8 -9 -9 -10 -9 -9 -11 -12 -13 -13 -14 -14 -13 -13 -13 -14 -14 -14 -14 -14 -14 -14 -14 -14 -14 -15 -16 -16 -16 -16 -16 -16
-5 -4 -5 -6 -7 -8 -8 -9 -10 -10 -10 -10 -10 -11 -13 -14 -15 -15 -15 -14 -13 -14 -15 -15 -15 -15 -15 -15 -15 -15 -15 -16 -16 -16 -16 -16 -16 -16
-5 -5 -6 -6 -7 -8 -9 -10 -10 -11 -11 -12 -12 -13 -14 -15 -15 -16 -16 -16 -15 -14 -15 -15 -15 -15 -15 -15 -15 -15 -15 -16 -16 -17 -17 -17 -17 -16
-5 -6 -6 -7 -8 -9 -10 -10 -11 -12 -12 -12 -13 -13 -15 -15 -15 -16 -16 -17 -17 -16 -15 -15 -15 -15 -15 -15 -15 -15 -15 -16 -17 -17 -17 -17 -17 -17
-6 -6 -7 -8 -8 -9 -10 -10 -11 -12 -12 -13 -13 -14 -14 -15 -15 -16 -16 -16 -17 -16 -16 -16 -16 -16 -16 -16 -16 -16 -16 -17 -17 -17 -17 -17 -17 -17
-7 -7 -8 -9 -9 -10 -10 -11 -11 -12 -12 -13 -13 -14 -14 -15 -15 -16 -17 -17 -17 -17 -17 -16 -16 -16 -16 -16 -16 -16 -16 -17 -17 -18 -18 -17 -17 -17
-8 -8 -9 -10 -10 -11 -11 -11 -11 -12 -13 -13 -13 -14 -14 -15 -16 -16 -17 -17 -17 -17 -17 -17 -16 -16 -16 -16 -16 -16 -16 -17 -17 -18 -18 -18 -18 -17
-8 -9 -10 -10 -11 -11 -11 -12 -13 -13 -13 -14 -14 -14 -15 -15 -16 -17 -17 -17 -17 -17 -17 -17 -17 -16 -16 -16 -16 -16 -17 -17 -18 -18 -18 -18 -18 -18
-9 -10 -10 -11 -11 -12 -13 -13 -13 -14 -14 -15 -15 -15 -15 -15 -16 -17 -17 -17 -17 -17 -17 -18 -17 -17 -17 -17 -17 -17 -17 -17 -17 -17 -18 -18 -18 -18
-10 -10 -11 -11 -12 -12 -13 -13 -15 -15 -15 -16 -16 -16 -16 -16 -16 -17 -17 -17 -17 -17 -18 -19 -18 -17 -17 -17 -17 -17 -17 -17 -17 -17 -18 -18 -18 -18
-10 -11 -11 -11 -12 -12 -13 -14 -16 -16 -16 -16 -16 -16 -16 -16 -17 -17 -17 -17 -17 -17 -18 -18 -17 -17 -17 -17 -17 -17 -18 -18 -18 -18 -18 -18 -18 -18
-11 -11 -11 -12 -12 -13 -14 -15 -16 -17 -16 -16 -16 -16 -16 -17 -17 -17 -17 -17 -17 -17 -17 -18 -18 -18 -17 -17 -17 -18 -18 -18 -18 -18 -18 -18 -18 -18
-11 -12 -12 -13 -14 -14 -14 -15 -16 -16 -17 -17 -16 -17 -17 -17 -17 -18 -18 -18 -18 -18 -18 -18 -18 -18 -18 -17 -17 -18 -18 -18 -18 -19 -18 -18 -18 -17
-12 -12 -13 -14 -15 -15 -15 -16 -16 -16 -16 -17 -17 -17 -17 -17 -17 -17 -17 -18 -18 -18 -18 -18 -18 -18 -18 -18 -18 -18 -18 -18 -18 -19 -19 -18 -18 -17
-13 -14 -15 -15 -16 -16 -16 -17 -18 -17 -18 -17 -17 -17 -17 -17 -18 -18 -18 -18 -18 -18 -18 -18 -18 -18 -18 -18 -18 -18 -19 -19 -19 -19 -18 -18 -17 -17
-15 -15 -16 -16 -16 -17 -17 -18 -18 -18 -17 -18 -17 -17 -17 -17 -18 -18 -18 -18 -18 -18 -18 -18 -18 -18 -18 -18 -18 -19 -19 -19 -19 -19 -18 -18 -18 -18
-16 -17 -17 -17 -17 -17 -18 -18 -18 -18 -18 -17 -18 -17 -17 -18 -18 -18 -18 -18 -18 -18 -18 -18 -18 -18 -18 -18 -18 -19 -19 -19 -19 -19 -19 -18 -18 -18
-17 -18 -18 -19 -19 -19 -19 -19 -18 -18 -18 -17 -17 -18 -18 -18 -18 -18 -18 -18 -18 -18 -18 -18 -18 -18 -18 -18 -18 -19 -19 -19 -19 -19 -18 -18 -18 -18
-18 -19 -20 -20 -20 -19 -20 -19 -19 -18 -17 -17 -17 -18 -18 -18 -18 -18 -18 -18 -18 -19 -18 -18 -18 -18 -18 -18 -18 -19 -19 -19 -19 -19 -19 -18 -18 -18
-19 -20 -21 -21 -21 -20 -20 -19 -19 -18 -18 -18 -18 -18 -18 -18 -19 -18 -18 -18 -18 -19 -18 -19 -18 -18 -19 -18 -18 -18 -19 -19 -19 -19 -19 -18 -18 -18
-20 -20 -21 -21 -21 -21 -20 -20 -20 -19 -19 -18 -19 -19 -19 -19 -19 -18 -18 -18 -19 -19 -19 -19 -18 -18 -19 -18 -18 -18 -19 -19 -19 -19 -19 -19 -19 -18

GFSNE_700_temp_057.txt.gz
Temp
-0 -1 -1 -2 -2 -3 -4 -4 -4 -4 -4 -5 -6 -7 -8 -8 -8 -9 -10 -10 -9 -9 -10 -10 -11 -12 -12 -12 -12 -13 -14 -14 -14 -14 -14 -14 -14 -14
-2 -2 -2 -2 -2 -4 -4 -4 -4 -4 -4 -5 -6 -7 -9 -9 -10 -10 -10 -10 -10 -11 -11 -12 -12 -13 -13 -13 -14 -14 -14 -14 -14 -14 -14 -14 -14 -14
-2 -1 -3 -3 -3 -4 -4 -4 -5 -5 -6 -6 -7 -8 -9 -10 -11 -11 -12 -12 -12 -12 -13 -13 -13 -13 -14 -14 -15 -15 -15 -15 -15 -15 -15 -15 -15 -15
-2 -2 -3 -4 -3 -5 -5 -6 -6 -7 -8 -7 -8 -9 -10 -10 -11 -12 -12 -12 -13 -13 -14 -14 -13 -13 -14 -15 -15 -15 -15 -15 -15 -15 -15 -15 -15 -15
-3 -4 -4 -4 -4 -5 -6 -6 -7 -7 -8 -8 -8 -9 -10 -11 -12 -12 -12 -13 -14 -14 -14 -14 -14 -15 -15 -15 -16 -16 -16 -16 -16 -16 -16 -16 -16 -16
-4 -4 -5 -5 -5 -6 -6 -7 -7 -8 -9 -9 -9 -9 -10 -11 -12 -12 -13 -13 -14 -14 -14 -14 -15 -16 -15 -16 -16 -16 -16 -16 -16 -16 -16 -16 -16 -17
-5 -5 -5 -6 -6 -6 -7 -7 -8 -9 -9 -10 -10 -11 -11 -11 -12 -13 -13 -14 -14 -15 -14 -15 -16 -16 -16 -16 -17 -17 -16 -16 -16 -16 -16 -16 -16 -17
-5 -5 -5 -6 -6 -7 -8 -8 -9 -9 -10 -10 -10 -11 -11 -12 -12 -13 -14 -14 -15 -15 -15 -15 -16 -16 -17 -17 -17 -17 -17 -17 -17 -17 -17 -16 -17 -17
-5 -5 -6 -7 -7 -7 -8 -9 -9 -10 -10 -11 -11 -11 -12 -12 -14 -14 -15 -15 -15 -15 -16 -16 -16 -16 -17 -17 -17 -17 -17 -17 -17 -17 -17 -17 -17 -18
-6 -6 -7 -8 -8 -8 -9 -9 -10 -10 -11 -11 -12 -12 -13 -13 -15 -15 -15 -15 -15 -16 -16 -16 -16 -17 -17 -17 -17 -17 -17 -18 -17 -17 -17 -17 -18 -18
-7 -7 -8 -9 -9 -9 -10 -10 -10 -10 -10 -10 -11 -12 -13 -14 -15 -15 -15 -16 -16 -16 -16 -17 -16 -17 -17 -17 -17 -17 -18 -18 -17 -17 -17 -18 -18 -18
-8 -8 -9 -9 -10 -10 -10 -10 -10 -10 -10 -10 -11 -11 -13 -14 -15 -16 -16 -16 -16 -16 -16 -16 -17 -17 -17 -17 -17 -17 -18 -18 -18 -17 -18 -18 -18 -18
-9 -9 -10 -10 -10 -10 -11 -11 -11 -11 -11 -12 -12 -12 -13 -14 -15 -15 -16 -16 -16 -16 -16 -17 -17 -17 -17 -17 -17 -18 -18 -18 -18 -18 -18 -18 -18 -19
-9 -10 -10 -10 -11 -11 -11 -11 -12 -12 -13 -13 -14 -14 -15 -15 -16 -16 -16 -16 -17 -17 -17 -17 -17 -18 -18 -17 -17 -18 -18 -18 -18 -18 -18 -18 -18 -19
-10 -10 -11 -11 -11 -12 -12 -12 -12 -13 -14 -14 -15 -15 -16 -17 -17 -17 -17 -17 -17 -17 -17 -17 -17 -18 -18 -18 -18 -18 -18 -18 -18 -18 -18 -18 -19 -18
-11 -11 -11 -12 -12 -12 -12 -13 -13 -14 -15 -15 -15 -16 -17 -18 -18 -18 -18 -18 -17 -17 -17 -18 -18 -18 -18 -18 -18 -18 -18 -18 -18 -18 -18 -19 -19 -18
-11 -12 -12 -12 -12 -13 -13 -13 -14 -15 -16 -16 -17 -17 -18 -18 -18 -17 -17 -17 -17 -17 -17 -18 -18 -18 -18 -18 -18 -18 -18 -18 -18 -19 -19 -19 -19 -18
-12 -12 -12 -13 -13 -13 -13 -14 -14 -16 -17 -17 -18 -19 -18 -18 -18 -17 -18 -17 -17 -18 -17 -18 -18 -18 -18 -18 -18 -18 -18 -18 -18 -19 -19 -19 -19 -19
-12 -13 -13 -13 -14 -14 -14 -15 -16 -17 -18 -18 -19 -19 -19 -18 -18 -18 -18 -18 -18 -17 -18 -18 -18 -18 -18 -18 -19 -18 -18 -18 -19 -19 -19 -19 -19 -19
-13 -14 -14 -15 -15 -15 -16 -16 -17 -18 -19 -19 -19 -20 -19 -18 -18 -18 -18 -18 -18 -18 -18 -19 -18 -18 -19 -19 -19 -19 -19 -18 -19 -19 -19 -19 -19 -19
-14 -15 -15 -16 -16 -16 -17 -18 -18 -19 -19 -19 -20 -19 -19 -18 -18 -18 -18 -18 -18 -18 -18 -18 -19 -19 -19 -18 -19 -19 -19 -18 -19 -19 -19 -20 -19 -19
-15 -16 -16 -17 -17 -17 -18 -19 -19 -20 -20 -20 -20 -20 -19 -19 -19 -18 -18 -19 -18 -19 -19 -19 -19 -19 -19 -19 -19 -19 -19 -19 -19 -19 -19 -19 -19 -19
-17 -17 -17 -18 -18 -19 -19 -20 -20 -20 -20 -20 -20 -20 -20 -19 -19 -19 -19 -19 -19 -19 -19 -19 -19 -19 -19 -19 -19 -19 -19 -19 -19 -19 -19 -19 -20 -20

GFSNE_700_temp_063.txt.gz
Temp
1 0 -1 -1 -1 -2 -2 -2 -3 -3 -3 -3 -4 -5 -5 -5 -5 -5 -5 -6 -7 -8 -8 -9 -9 -10 -11 -12 -13 -13 -13 -13 -13 -14 -14 -14 -13 -14
1 -0 -0 -2 -2 -2 -2 -2 -3 -4 -4 -4 -4 -4 -5 -4 -5 -5 -6 -6 -7 -8 -9 -9 -10 -11 -12 -12 -13 -13 -13 -14 -14 -15 -15 -14 -15 -15
0 0 -1 -1 -2 -2 -3 -3 -3 -4 -4 -5 -5 -5 -5 -5 -5 -6 -6 -6 -7 -8 -9 -10 -10 -12 -12 -13 -13 -13 -14 -14 -14 -15 -15 -16 -16 -15
0 -1 -2 -1 -2 -2 -3 -3 -4 -5 -4 -4 -4 -5 -5 -5 -6 -6 -7 -7 -8 -9 -10 -10 -11 -12 -13 -13 -13 -14 -14 -14 -14 -15 -16 -16 -16 -16
-1 -2 -1 -2 -3 -3 -4 -4 -5 -5 -5 -5 -5 -5 -5 -6 -6 -7 -8 -8 -9 -10 -10 -11 -11 -12 -13 -13 -13 -14 -14 -14 -15 -15 -16 -16 -16 -16
-0 -1 -2 -3 -3 -3 -4 -5 -5 -4 -6 -6 -5 -6 -6 -7 -8 -8 -8 -9 -9 -10 -11 -11 -12 -12 -13 -14 -14 -14 -15 -15 -15 -16 -16 -17 -17 -17
-0 -1 -1 -3 -2 -3 -4 -5 -5 -5 -6 -6 -6 -7 -8 -8 -9 -9 -9 -9 -9 -10 -10 -10 -12 -13 -14 -14 -15 -15 -15 -15 -15 -16 -16 -17 -17 -17
-1 -1 -2 -3 -3 -4 -4 -5 -5 -6 -6 -7 -7 -8 -8 -9 -9 -10 -10 -10 -9 -10 -11 -11 -12 -13 -14 -15 -15 -15 -15 -15 -16 -16 -17 -17 -17 -17
-2 -2 -3 -3 -4 -4 -5 -6 -6 -7 -8 -8 -8 -9 -9 -10 -10 -11 -11 -11 -11 -11 -12 -12 -12 -13 -15 -16 -16 -16 -16 -16 -16 -17 -17 -17 -17 -17
-2 -3 -3 -4 -5 -6 -6 -7 -8 -9 -9 -9 -9 -10 -10 -11 -11 -11 -11 -11 -11 -12 -13 -13 -13 -14 -15 -16 -16 -16 -16 -16 -17 -17 -17 -17 -17 -17
-3 -4 -5 -5 -6 -7 -8 -8 -9 -9 -10 -10 -10 -11 -11 -11 -12 -12 -12 -12 -12 -12 -13 -14 -14 -15 -15 -16 -16 -16 -17 -17 -17 -18 -17 -17 -17 -18
-4 -5 -6 -7 -8 -8 -9 -9 -10 -10 -10 -10 -11 -11 -11 -12 -12 -13 -13 -13 -14 -14 -14 -15 -15 -16 -16 -16 -16 -16 -17 -17 -17 -18 -17 -17 -18 -17
-6 -7 -8 -8 -9 -9 -10 -10 -10 -10 -10 -11 -11 -11 -12 -12 -13 -13 -14 -14 -15 -15 -15 -18 -17 -17 -17 -17 -17 -16 -17 -17 -18 -18 -17 -18 -18 -18
-8 -8 -9 -10 -10 -10 -11 -11 -12 -11 -11 -11 -12 -12 -12 -13 -13 -13 -14 -15 -16 -16 -16 -18 -18 -18 -17 -17 -17 -17 -18 -18 -18 -18 -18 -18 -18 -18
-10 -11 -10 -11 -12 -12 -13 -13 -13 -13 -12 -12 -12 -13 -13 -13 -14 -14 -14 -15 -15 -16 -18 -19 -19 -18 -18 -17 -17 -18 -18 -18 -18 -18 -18 -18 -18 -18
-12 -12 -12 -12 -14 -14 -14 -14 -13 -13 -13 -13 -13 -14 -14 -14 -14 -15 -15 -15 -15 -17 -18 -18 -19 -18 -18 -18 -18 -18 -18 -18 -18 -18 -18 -18 -18 -18
-12 -13 -13 -14 -14 -15 -14 -14 -15 -15 -15 -15 -15 -15 -15 -15 -15 -16 -16 -16 -17 -18 -18 -18 -18 -18 -18 -18 -18 -18 -18 -18 -18 -18 -18 -18 -18 -18
-13 -13 -13 -14 -15 -15 -14 -15 -15 -15 -15 -15 -16 -15 -15 -16 -16 -16 -17 -18 -18 -18 -18 -18 -17 -18 -18 -18 -18 -18 -19 -18 -18 -18 -18 -18 -19 -19
-13 -14 -14 -14 -14 -14 -15 -15 -15 -15 -16 -16 -16 -16 -16 -17 -17 -17 -18 -18 -19 -18 -18 -18 -18 -18 -18 -18 -19 -19 -19 -18 -18 -18 -18 -18 -19 -19
-14 -13 -13 -14 -15 -15 -15 -15 -16 -16 -17 -17 -17 -17 -17 -18 -18 -18 -19 -19 -19 -18 -18 -18 -18 -18 -18 -19 -19 -19 -19 -19 -19 -19 -19 -19 -19 -19
-14 -14 -15 -15 -15 -16 -16 -16 -17 -17 -18 -18 -18 -18 -19 -19 -19 -19 -19 -19 -19 -18 -18 -19 -19 -19 -18 -19 -19 -19 -19 -19 -19 -19 -19 -19 -19 -19
-15 -15 -15 -16 -16 -17 -17 -17 -18 -18 -19 -19 -19 -19 -20 -20 -20 -20 -20 -20 -20 -19 -18 -19 -19 -19 -19 -19 -19 -19 -19 -19 -19 -19 -19 -19 -19 -19
-16 -16 -17 -17 -17 -18 -18 -19 -19 -20 -20 -20 -20 -20 -21 -21 -21 -21 -21 -20 -20 -19 -19 -19 -19 -19 -19 -19 -19 -19 -19 -19 -19 -19 -19 -19 -19 -19

GFSNE_700_temp_066.txt.gz
Temp
-0 -0 -0 0 -0 -1 -1 -1 -2 -2 -2 -2 -3 -4 -4 -4 -5 -5 -5 -5 -5 -6 -6 -7 -7 -7 -8 -9 -9 -11 -12 -12 -12 -13 -13 -13 -13 -13
-0 -0 0 0 0 -1 -2 -1 -2 -3 -2 -3 -3 -3 -4 -4 -5 -5 -5 -5 -5 -5 -6 -7 -7 -8 -9 -9 -9 -10 -12 -12 -13 -13 -13 -14 -14 -14
0 0 -0 -0 -1 -1 -2 -2 -3 -2 -2 -4 -3 -4 -6 -5 -5 -5 -5 -5 -6 -6 -7 -7 -8 -8 -9 -10 -10 -11 -11 -12 -13 -12 -13 -14 -14 -15
0 1 -0 -1 -1 -1 -2 -2 -3 -3 -3 -4 -4 -5 -5 -5 -5 -5 -5 -6 -6 -7 -8 -8 -9 -9 -10 -10 -11 -11 -12 -12 -13 -13 -14 -14 -15 -15
1 1 0 -0 -1 -2 -2 -3 -3 -4 -5 -5 -5 -5 -5 -5 -5 -6 -6 -7 -7 -8 -8 -9 -9 -10 -10 -10 -11 -12 -12 -13 -14 -14 -14 -15 -15 -15
1 0 -0 -1 -1 -1 -3 -3 -4 -4 -5 -5 -5 -5 -5 -6 -6 -6 -7 -7 -8 -9 -9 -9 -10 -10 -10 -11 -11 -12 -12 -13 -15 -15 -15 -15 -15 -15
0 -0 -1 -0 -1 -1 -3 -4 -4 -5 -5 -5 -5 -6 -6 -7 -7 -7 -7 -7 -8 -8 -9 -9 -9 -10 -10 -11 -12 -12 -13 -14 -15 -16 -15 -16 -15 -15
-0 -0 -1 -1 -1 -2 -3 -4 -4 -5 -6 -6 -6 -7 -7 -7 -8 -8 -8 -8 -9 -9 -10 -10 -10 -11 -11 -12 -12 -13 -14 -15 -15 -16 -15 -16 -16 -16
-1 -2 -1 -2 -2 -3 -4 -4 -5 -5 -6 -6 -7 -8 -8 -8 -9 -9 -10 -10 -10 -10 -11 -10 -11 -11 -12 -12 -13 -14 -14 -15 -16 -16 -16 -16 -16 -16
-1 -1 -2 -2 -3 -4 -4 -5 -5 -6 -7 -7 -8 -9 -9 -10 -10 -11 -11 -11 -11 -11 -12 -11 -12 -12 -13 -13 -14 -14 -15 -15 -16 -16 -16 -16 -16 -17
-1 -2 -2 -3 -4 -4 -5 -6 -7 -7 -8 -9 -9 -10 -11 -12 -12 -12 -12 -12 -12 -12 -12 -13 -13 -13 -14 -14 -15 -15 -16 -16 -16 -16 -16 -17 -16 -17
-2 -2 -3 -3 -4 -5 -6 -7 -8 -9 -10 -11 -11 -12 -13 -12 -13 -13 -13 -13 -13 -12 -13 -14 -14 -15 -14 -15 -16 -16 -17 -17 -17 -17 -17 -17 -17 -17
-3 -3 -4 -5 -6 -7 -8 -9 -10 -10 -12 -12 -12 -13 -13 -14 -14 -13 -14 -14 -14 -14 -14 -15 -14 -15 -17 -17 -17 -17 -17 -17 -17 -17 -17 -17 -18 -18
-4 -5 -6 -7 -8 -8 -9 -11 -12 -12 -12 -13 -13 -14 -14 -14 -14 -14 -14 -14 -15 -15 -15 -16 -15 -17 -18 -18 -17 -17 -17 -17 -17 -17 -18 -18 -18 -18
-6 -7 -8 -9 -10 -11 -12 -12 -13 -13 -13 -13 -14 -14 -14 -14 -14 -14 -15 -15 -15 -15 -16 -16 -17 -18 -18 -18 -18 -18 -18 -18 -17 -18 -18 -17 -18 -18
-8 -10 -11 -12 -12 -11 -12 -12 -13 -13 -13 -14 -14 -14 -14 -15 -15 -15 -15 -15 -15 -15 -16 -18 -18 -18 -18 -19 -18 -18 -18 -18 -18 -18 -18 -18 -18 -18
-9 -10 -11 -11 -12 -12 -13 -13 -13 -13 -14 -14 -14 -15 -15 -15 -15 -16 -16 -16 -16 -16 -16 -18 -19 -18 -18 -18 -18 -18 -18 -18 -19 -18 -18 -18 -18 -18
-11 -12 -12 -13 -13 -13 -13 -13 -14 -14 -15 -15 -15 -16 -16 -16 -16 -17 -17 -17 -17 -17 -17 -18 -18 -18 -18 -18 -18 -18 -18 -18 -19 -18 -18 -18 -18 -18
-13 -13 -13 -13 -14 -14 -14 -14 -15 -15 -16 -16 -16 -16 -17 -17 -17 -17 -18 -18 -17 -18 -18 -18 -19 -18 -18 -18 -18 -18 -19 -19 -19 -19 -18 -18 -19 -19
-13 -14 -14 -14 -14 -15 -15 -15 -16 -16 -16 -17 -17 -17 -18 -18 -18 -18 -18 -18 -18 -18 -18 -19 -19 -19 -19 -18 -19 -19 -19 -19 -19 -19 -19 -19 -19 -19
-14 -14 -15 -15 -15 -16 -16 -16 -17 -17 -18 -18 -19 -19 -19 -19 -19 -19 -19 -19 -19 -19 -19 -19 -19 -18 -19 -18 -18 -19 -19 -19 -19 -19 -19 -19 -19 -19
-15 -15 -15 -15 -16 -16 -17 -18 -18 -19 -19 -20 -20 -20 -20 -20 -20 -20 -20 -20 -20 -20 -20 -20 -19 -19 -19 -19 -19 -19 -19 -19 -19 -19 -19 -19 -19 -19
-15 -16 -16 -17 -17 -18 -19 -19 -20 -20 -21 -21 -21 -22 -22 -22 -22 -22 -22 -21 -21 -21 -21 -20 -19 -19 -19 -19 -19 -19 -19 -19 -19 -19 -19 -19 -19 -19

GFSNE_700_temp_069.txt.gz
Temp
0 0 -0 -1 -1 -1 -1 -1 -1 -1 -1 -2 -2 -2 -3 -3 -4 -4 -4 -4 -5 -5 -5 -5 -5 -5 -6 -6 -7 -7 -8 -9 -9 -10 -11 -11 -12 -12
-0 -0 -0 -1 -0 -0 -0 0 -0 -1 -2 -2 -3 -3 -3 -4 -4 -4 -4 -6 -5 -5 -5 -5 -6 -6 -6 -7 -7 -8 -8 -9 -9 -10 -10 -12 -12 -12
-0 -0 -0 -1 -0 0 -0 -0 -1 -2 -2 -2 -3 -3 -3 -5 -5 -5 -5 -5 -5 -5 -5 -6 -6 -6 -7 -8 -8 -8 -9 -9 -9 -10 -11 -12 -12 -13
0 -0 -0 -1 0 -0 -0 -1 -2 -1 -2 -2 -3 -4 -5 -5 -5 -6 -5 -5 -5 -6 -6 -6 -7 -7 -8 -8 -9 -9 -9 -9 -10 -10 -11 -12 -13 -13
-0 -0 -0 -1 0 -0 -1 -1 -1 -2 -3 -3 -4 -4 -4 -5 -5 -5 -6 -6 -6 -6 -7 -7 -8 -8 -9 -9 -9 -9 -10 -10 -10 -11 -11 -12 -13 -14
-0 -0 0 0 1 -1 -1 -1 -2 -3 -3 -3 -4 -4 -4 -5 -5 -6 -6 -6 -7 -8 -8 -9 -9 -9 -9 -10 -10 -10 -10 -10 -11 -11 -12 -12 -13 -15
-0 0 1 1 0 -0 -2 -1 -2 -3 -2 -2 -4 -4 -5 -6 -6 -6 -7 -7 -8 -8 -9 -9 -10 -10 -10 -10 -10 -10 -11 -11 -12 -12 -13 -13 -14 -15
0 0 1 0 -1 -2 -2 -1 -2 -3 -3 -4 -4 -4 -6 -7 -7 -7 -8 -8 -8 -9 -9 -10 -10 -11 -11 -11 -11 -11 -12 -12 -13 -13 -14 -15 -15 -15
1 0 0 -1 -1 -1 -1 -2 -2 -3 -4 -5 -6 -6 -7 -7 -8 -8 -9 -9 -10 -11 -11 -10 -11 -11 -11 -11 -12 -12 -13 -13 -13 -14 -15 -16 -16 -16
-0 -1 -1 -1 -2 -2 -2 -2 -3 -4 -5 -6 -6 -7 -8 -8 -9 -9 -10 -11 -11 -12 -12 -10 -12 -11 -11 -12 -12 -13 -14 -14 -14 -14 -15 -16 -16 -16
-1 -1 -1 -2 -2 -2 -2 -3 -5 -5 -6 -7 -8 -8 -9 -10 -10 -11 -12 -12 -12 -12 -12 -12 -12 -12 -12 -12 -13 -14 -14 -15 -15 -16 -16 -16 -16 -16
-1 -2 -3 -2 -2 -3 -3 -5 -5 -6 -7 -8 -9 -10 -10 -10 -11 -12 -13 -13 -13 -12 -13 -13 -13 -14 -12 -13 -14 -15 -16 -17 -16 -16 -17 -16 -17 -17
-1 -3 -2 -2 -3 -4 -5 -6 -7 -8 -10 -11 -11 -12 -12 -12 -13 -13 -13 -13 -13 -14 -14 -14 -14 -14 -15 -14 -14 -16 -17 -17 -17 -16 -17 -17 -17 -17
-4 -3 -3 -4 -5 -5 -6 -8 -10 -12 -13 -12 -12 -12 -12 -13 -13 -13 -13 -14 -14 -14 -15 -15 -15 -15 -15 -15 -16 -17 -17 -17 -17 -17 -17 -17 -17 -17
-4 -4 -5 -5 -6 -7 -8 -10 -12 -12 -12 -12 -13 -13 -13 -13 -13 -14 -14 -14 -14 -15 -15 -16 -16 -16 -16 -16 -17 -18 -18 -18 -17 -17 -18 -18 -18 -18
-5 -5 -6 -6 -7 -8 -9 -10 -12 -12 -13 -13 -13 -13 -13 -14 -14 -14 -14 -15 -15 -15 -16 -17 -17 -17 -17 -17 -18 -18 -18 -18 -18 -18 -18 -18 -18 -18
-6 -6 -8 -9 -10 -10 -11 -12 -13 -13 -13 -13 -14 -14 -14 -14 -15 -15 -15 -15 -15 -15 -16 -17 -17 -18 -18 -18 -18 -18 -18 -18 -18 -18 -18 -18 -18 -18
-8 -9 -10 -10 -11 -12 -13 -13 -14 -14 -14 -14 -14 -15 -15 -15 -15 -16 -16 -16 -16 -17 -17 -17 -18 -18 -19 -19 -18 -18 -18 -18 -18 -18 -18 -18 -18 -18
-10 -11 -11 -12 -13 -13 -14 -14 -14 -15 -15 -15 -15 -16 -16 -16 -16 -17 -17 -17 -18 -18 -18 -18 -18 -18 -19 -19 -18 -18 -18 -18 -18 -18 -19 -19 -19 -19
-12 -12 -13 -14 -14 -14 -14 -15 -15 -15 -16 -16 -16 -17 -17 -18 -18 -18 -18 -19 -19 -19 -19 -19 -19 -19 -19 -19 -18 -18 -19 -19 -19 -19 -19 -19 -19 -19
-13 -14 -14 -15 -15 -15 -15 -16 -16 -16 -17 -17 -18 -19 -19 -19 -20 -20 -20 -20 -20 -20 -20 -20 -20 -20 -20 -19 -19 -18 -18 -19 -19 -19 -19 -19 -19 -19
-14 -15 -15 -15 -15 -16 -16 -17 -17 -18 -19 -19 -20 -20 -21 -21 -22 -22 -22 -22 -21 -21 -21 -21 -21 -21 -20 -19 -19 -19 -19 -19 -19 -19 -19 -20 -20 -19
-15 -15 -15 -16 -16 -17 -17 -18 -19 -20 -20 -21 -22 -22 -23 -23 -23 -23 -23 -23 -23 -22 -22 -21 -21 -21 -20 -19 -19 -19 -19 -19 -19 -20 -20 -20 -20 -19